M I D A S
Marine Information and Data Acquisition System
Tripno 2060 of the Zeeleeuw from 2011-03-17 07:15:59 to 2011-03-17 18:06:09
Back to CruiseResearch ActivitiesStationsMapUnderway DataData graphs

EquipmentUnitsComment
TimeDGPSUTC
LatitudeDGPSDM.mWGS84
LongitudeDGPSDM.mWGS84
TemperatureSBE03/SBE38deg celciusITS90
ConductivitySBE21S/mITS90
SalinitySBE21 Practical Salinity Units
ChlorophylAChelsea fluorimeterg/lCalibrated in Aceton
Missing or incorrect values are displayed as -999
Sea surface data collected by the RV Zeeleeuw from 2011-03-17 07:05:48 to 2011-03-17 18:13:10
                                                                                    Next 1000 lines
Time Latitude Longitude Temperature Conductivity Salinity ChlorophylA
2011-03-17 07:05:58 51°13.662 2°55.96 14.8136 0.128051 0.710915 -3.020363
2011-03-17 07:06:03 51°13.662 2°55.96 14.8138 0.128154 0.711511 -3.020363
2011-03-17 07:06:08 51°13.662 2°55.961 14.8142 0.128051 0.710915 -3.020363
2011-03-17 07:06:13 51°13.662 2°55.961 14.8134 0.128051 0.710915 -3.020363
2011-03-17 07:06:18 51°13.661 2°55.961 14.815 0.128051 0.710915 -3.020363
2011-03-17 07:06:23 51°13.662 2°55.961 14.8156 0.128154 0.711511 -3.020363
2011-03-17 07:06:28 51°13.662 2°55.961 14.8178 0.127948 0.710318 -3.020363
2011-03-17 07:06:33 51°13.662 2°55.961 14.8169 0.128051 0.710915 -3.020363
2011-03-17 07:06:38 51°13.662 2°55.961 14.8174 0.128051 0.710902 -3.020363
2011-03-17 07:06:42 51°13.662 2°55.961 14.8182 0.128051 0.710902 -3.020363
2011-03-17 07:06:48 51°13.662 2°55.96 14.8162 0.128154 0.711498 -3.020363
2011-03-17 07:06:53 51°13.662 2°55.96 14.8137 0.128051 0.710902 -3.020363
2011-03-17 07:06:58 51°13.662 2°55.96 14.8129 0.128154 0.711498 -3.020363
2011-03-17 07:07:03 51°13.662 2°55.96 14.8148 0.128154 0.711486 -3.020363
2011-03-17 07:07:08 51°13.662 2°55.96 14.8153 0.128051 0.710889 -3.020363
2011-03-17 07:07:13 51°13.662 2°55.96 14.8148 0.128051 0.710889 -3.020363
2011-03-17 07:07:18 51°13.662 2°55.96 14.8154 0.128051 0.710889 -3.020363
2011-03-17 07:07:23 51°13.662 2°55.96 14.8151 0.128051 0.710889 -3.020363
2011-03-17 07:07:28 51°13.662 2°55.96 14.8162 0.128051 0.710889 -3.020363
2011-03-17 07:07:33 51°13.662 2°55.96 14.8162 0.128051 0.710889 -3.020363
2011-03-17 07:07:38 51°13.662 2°55.96 14.816 0.128154 0.711486 -3.020363
2011-03-17 07:07:43 51°13.662 2°55.96 14.8158 0.128154 0.711486 -3.020363
2011-03-17 07:07:48 51°13.662 2°55.96 14.816 0.127948 0.710293 -3.020363
2011-03-17 07:07:53 51°13.662 2°55.96 14.8169 0.128051 0.710877 -3.020363
2011-03-17 07:07:58 51°13.662 2°55.96 14.8164 0.128051 0.710877 -3.020363
2011-03-17 07:08:03 51°13.662 2°55.96 14.8181 0.128051 0.710877 -3.020363
2011-03-17 07:08:07 51°13.662 2°55.96 14.8199 0.128051 0.710877 -3.020363
2011-03-17 07:08:13 51°13.662 2°55.96 14.822 0.128051 0.710877 -3.020363
2011-03-17 07:08:18 51°13.662 2°55.96 14.8242 0.128051 0.710877 -3.020363
2011-03-17 07:08:23 51°13.662 2°55.96 14.8252 0.128154 0.711473 -3.020363
2011-03-17 07:08:28 51°13.662 2°55.96 14.826 0.128051 0.710864 -3.020363
2011-03-17 07:08:34 51°13.663 2°55.959 14.8297 0.128051 0.710864 -3.020363
2011-03-17 07:08:38 51°13.663 2°55.959 14.829 0.128051 0.710877 -3.020363
2011-03-17 07:08:43 51°13.663 2°55.959 14.8345 0.128051 0.710877 -3.020363
2011-03-17 07:08:48 51°13.663 2°55.959 14.8329 0.128051 0.710877 -3.020363
2011-03-17 07:08:53 51°13.663 2°55.959 14.8307 0.128051 0.710877 -3.020363
2011-03-17 07:08:58 51°13.663 2°55.959 14.8279 0.127948 0.710268 -3.020363
2011-03-17 07:09:03 51°13.663 2°55.959 14.8283 0.128051 0.710864 -3.020363
2011-03-17 07:09:08 51°13.663 2°55.959 14.8298 0.128051 0.710851 -3.020363
2011-03-17 07:09:13 51°13.662 2°55.959 14.8313 0.128051 0.710851 -3.020363
2011-03-17 07:09:18 51°13.662 2°55.959 14.8326 0.128154 0.711448 -3.020363
2011-03-17 07:09:24 51°13.662 2°55.96 14.8315 0.128051 0.710851 -3.020363
2011-03-17 07:09:28 51°13.662 2°55.96 14.8278 0.127948 0.710268 -3.020363
2011-03-17 07:09:32 51°13.662 2°55.96 14.8286 0.128051 0.710851 -3.020363
2011-03-17 07:09:38 51°13.662 2°55.96 14.8286 0.128051 0.710864 -3.020363
2011-03-17 07:09:43 51°13.662 2°55.96 14.8309 0.128051 0.710864 -3.020363
2011-03-17 07:09:48 51°13.662 2°55.96 14.8341 0.128051 0.710864 -3.020363
2011-03-17 07:09:53 51°13.662 2°55.96 14.8348 0.128154 0.71146 -3.020363
2011-03-17 07:09:58 51°13.662 2°55.96 14.8346 0.128051 0.710851 -3.020363
2011-03-17 07:10:03 51°13.662 2°55.959 14.8378 0.127948 0.710255 -3.020363
2011-03-17 07:10:08 51°13.662 2°55.959 14.8388 0.128051 0.710839 -3.020363
2011-03-17 07:10:13 51°13.662 2°55.959 14.8391 0.128051 0.710839 -3.020363
2011-03-17 07:10:18 51°13.662 2°55.959 14.839 0.128154 0.711435 -3.020363
2011-03-17 07:10:23 51°13.662 2°55.959 14.8351 0.128051 0.710839 -3.020363
2011-03-17 07:10:28 51°13.662 2°55.959 14.8405 0.128051 0.710839 -3.020363
2011-03-17 07:10:33 51°13.662 2°55.959 14.838 0.128154 0.711435 -3.020363
2011-03-17 07:10:38 51°13.662 2°55.959 14.8395 0.128051 0.710839 -3.020363
2011-03-17 07:10:43 51°13.662 2°55.96 14.8366 0.128051 0.710839 -3.020363
2011-03-17 07:10:48 51°13.662 2°55.96 14.8404 0.127948 0.710243 -3.020363
2011-03-17 07:10:52 51°13.662 2°55.96 14.8405 0.127948 0.710243 -3.020363
2011-03-17 07:10:57 51°13.662 2°55.959 14.8459 0.128154 0.711435 -3.020363
2011-03-17 07:11:02 51°13.662 2°55.96 14.8459 0.128051 0.710839 -3.020363
2011-03-17 07:11:08 51°13.662 2°55.959 14.8522 0.128051 0.710839 -3.020363
2011-03-17 07:11:14 51°13.662 2°55.959 14.8504 0.128051 0.710839 -3.020363
2011-03-17 07:11:18 51°13.662 2°55.959 14.8574 0.128051 0.710839 -3.020363
2011-03-17 07:11:24 51°13.662 2°55.959 14.8558 0.128154 0.711422 -3.020363
2011-03-17 07:11:28 51°13.662 2°55.959 14.8546 0.128051 0.710826 -3.020363
2011-03-17 07:11:33 51°13.662 2°55.96 14.8485 0.128051 0.710813 -3.020363
2011-03-17 07:11:37 51°13.662 2°55.959 14.8516 0.128051 0.710826 -3.020363
2011-03-17 07:11:43 51°13.662 2°55.96 14.8484 0.128051 0.710826 -3.020363
2011-03-17 07:11:48 51°13.662 2°55.96 14.8503 0.128051 0.710813 -3.020363
2011-03-17 07:11:53 51°13.662 2°55.96 14.8454 0.128051 0.710813 -3.020363
2011-03-17 07:11:58 51°13.662 2°55.96 14.8507 0.128051 0.710813 -3.020363
2011-03-17 07:12:04 51°13.662 2°55.96 14.8506 0.128051 0.710826 -3.020363
2011-03-17 07:12:08 51°13.662 2°55.96 14.8537 0.128051 0.710826 -3.020363
2011-03-17 07:12:14 51°13.662 2°55.96 14.851 0.128051 0.710826 -3.020363
2011-03-17 07:12:17 51°13.662 2°55.96 14.8573 0.128051 0.710813 -3.020363
2011-03-17 07:12:22 51°13.662 2°55.96 14.8553 0.128154 0.71141 -3.020363
2011-03-17 07:12:28 51°13.662 2°55.96 14.8585 0.128051 0.710813 -3.020363
2011-03-17 07:12:34 51°13.662 2°55.96 14.8575 0.128051 0.710801 -3.020363
2011-03-17 07:12:38 51°13.662 2°55.96 14.8595 0.128154 0.711397 -3.020363
2011-03-17 07:12:43 51°13.662 2°55.96 14.8551 0.128154 0.711397 -3.020363
2011-03-17 07:12:48 51°13.662 2°55.96 14.8552 0.128154 0.711397 -3.020363
2011-03-17 07:12:54 51°13.662 2°55.96 14.8514 0.128154 0.711397 -3.020363
2011-03-17 07:12:58 51°13.662 2°55.96 14.8482 0.128051 0.710801 -3.020363
2011-03-17 07:13:03 51°13.662 2°55.96 14.8462 0.128051 0.710788 -3.020363
2011-03-17 07:13:08 51°13.662 2°55.96 14.8464 0.128051 0.710788 -3.020363
2011-03-17 07:13:14 51°13.662 2°55.96 14.848 0.128051 0.710788 -3.020363
2011-03-17 07:13:18 51°13.662 2°55.96 14.8486 0.128051 0.710788 -3.020363
2011-03-17 07:13:23 51°13.662 2°55.96 14.8497 0.128051 0.710801 -3.020363
2011-03-17 07:13:28 51°13.662 2°55.96 14.8506 0.128154 0.711397 -3.020363
2011-03-17 07:13:33 51°13.662 2°55.96 14.8513 0.128051 0.710801 -3.020363
2011-03-17 07:13:38 51°13.662 2°55.96 14.852 0.128051 0.710788 -3.020363
2011-03-17 07:13:43 51°13.662 2°55.96 14.8533 0.128051 0.710788 -3.020363
2011-03-17 07:13:48 51°13.662 2°55.96 14.8531 0.128154 0.711397 -3.020363
2011-03-17 07:13:54 51°13.662 2°55.96 14.8533 0.128051 0.710788 -3.020363
2011-03-17 07:13:58 51°13.662 2°55.96 14.8532 0.128051 0.710776 -3.020363
2011-03-17 07:14:04 51°13.662 2°55.96 14.8551 0.128154 0.711372 -3.020363
2011-03-17 07:14:08 51°13.662 2°55.96 14.8562 0.128154 0.711372 -3.020363
2011-03-17 07:14:14 51°13.662 2°55.96 14.8593 0.128154 0.711372 -3.020363
2011-03-17 07:14:18 51°13.662 2°55.96 14.8593 0.128051 0.710776 -3.020363
2011-03-17 07:14:24 51°13.662 2°55.96 14.8597 0.128051 0.710776 -3.020363
2011-03-17 07:14:29 51°13.662 2°55.96 14.8584 0.128051 0.710776 -3.020363
2011-03-17 07:14:33 51°13.662 2°55.96 14.8562 0.128154 0.711372 -3.020363
2011-03-17 07:14:38 51°13.662 2°55.96 14.8564 0.128154 0.711372 -3.020363
2011-03-17 07:14:43 51°13.662 2°55.96 14.8546 0.128154 0.711372 -3.020363
2011-03-17 07:14:48 51°13.662 2°55.96 14.8562 0.128051 0.710776 -3.020363
2011-03-17 07:14:54 51°13.662 2°55.96 14.8571 0.128154 0.711372 -3.020363
2011-03-17 07:14:58 51°13.662 2°55.96 14.858 0.128051 0.710763 -3.020363
2011-03-17 07:15:03 51°13.662 2°55.96 14.8593 0.128051 0.710763 -3.020363
2011-03-17 07:15:08 51°13.662 2°55.96 14.8605 0.128154 0.711359 -3.020363
2011-03-17 07:15:14 51°13.662 2°55.96 14.8633 0.128154 0.711359 -3.020363
2011-03-17 07:15:18 51°13.662 2°55.96 14.864 0.128051 0.710763 -3.020363
2011-03-17 07:15:23 51°13.662 2°55.96 14.864 0.128154 0.711359 -3.020363
2011-03-17 07:15:28 51°13.662 2°55.96 14.8631 0.128051 0.710763 -3.020363
2011-03-17 07:15:34 51°13.662 2°55.96 14.864 0.128154 0.711359 -3.020363
2011-03-17 07:15:38 51°13.662 2°55.959 14.8648 0.128051 0.710763 -3.020363
2011-03-17 07:15:43 51°13.662 2°55.96 14.8655 0.128051 0.710763 -3.020363
2011-03-17 07:15:48 51°13.662 2°55.96 14.8651 0.128051 0.71075 -3.020363
2011-03-17 07:15:53 51°13.662 2°55.96 14.8666 0.128051 0.71075 -3.020363
2011-03-17 07:15:58 51°13.662 2°55.96 14.8685 0.128154 0.711346 -3.020363
2011-03-17 07:16:03 51°13.662 2°55.96 14.8685 0.128154 0.711346 -3.020363
2011-03-17 07:16:08 51°13.662 2°55.96 14.8657 0.128051 0.71075 -3.020363
2011-03-17 07:16:13 51°13.662 2°55.96 14.8666 0.128051 0.71075 -3.020363
2011-03-17 07:16:18 51°13.662 2°55.96 14.8663 0.128051 0.71075 -3.020363
2011-03-17 07:16:23 51°13.662 2°55.96 14.8666 0.128051 0.71075 -3.020363
2011-03-17 07:16:29 51°13.662 2°55.96 14.8654 0.128154 0.711346 -3.020363
2011-03-17 07:16:34 51°13.662 2°55.96 14.8662 0.128051 0.710738 -3.020363
2011-03-17 07:16:38 51°13.662 2°55.96 14.8644 0.128051 0.71075 -3.020363
2011-03-17 07:16:44 51°13.662 2°55.96 14.8669 0.128051 0.71075 -3.020363
2011-03-17 07:16:48 51°13.662 2°55.96 14.866 0.128051 0.710738 -3.020363
2011-03-17 07:16:54 51°13.662 2°55.96 14.8682 0.128154 0.711334 -3.020363
2011-03-17 07:16:58 51°13.662 2°55.96 14.8681 0.128154 0.711346 -3.020363
2011-03-17 07:17:03 51°13.662 2°55.96 14.8696 0.128051 0.71075 -3.020363
2011-03-17 07:17:09 51°13.662 2°55.96 14.8683 0.128051 0.710738 -3.020363
2011-03-17 07:17:14 51°13.662 2°55.96 14.8691 0.128051 0.710738 -3.020363
2011-03-17 07:17:18 51°13.662 2°55.96 14.8675 0.128051 0.710738 -3.020363
2011-03-17 07:17:23 51°13.662 2°55.96 14.8681 0.128051 0.710738 -3.020363
2011-03-17 07:17:28 51°13.662 2°55.96 14.8678 0.128051 0.710738 -3.020363
2011-03-17 07:17:34 51°13.662 2°55.96 14.8682 0.128051 0.710725 -3.020363
2011-03-17 07:17:38 51°13.662 2°55.96 14.8666 0.128051 0.710725 -3.020363
2011-03-17 07:17:43 51°13.662 2°55.96 14.8663 0.128051 0.710725 -3.020363
2011-03-17 07:17:48 51°13.662 2°55.96 14.8669 0.128051 0.710725 -3.020363
2011-03-17 07:17:54 51°13.662 2°55.96 14.8669 0.128051 0.710725 -3.020363
2011-03-17 07:17:58 51°13.662 2°55.96 14.8667 0.128051 0.710725 -3.020363
2011-03-17 07:18:03 51°13.662 2°55.96 14.8675 0.128051 0.710725 -3.020363
2011-03-17 07:18:08 51°13.662 2°55.96 14.8678 0.128051 0.710725 -3.020363
2011-03-17 07:18:13 51°13.662 2°55.96 14.8689 0.128051 0.710725 -3.020363
2011-03-17 07:18:18 51°13.662 2°55.96 14.8703 0.128154 0.711321 -3.020363
2011-03-17 07:18:24 51°13.662 2°55.96 14.8711 0.128051 0.710725 -3.020363
2011-03-17 07:18:28 51°13.662 2°55.96 14.8712 0.128051 0.710725 -3.020363
2011-03-17 07:18:33 51°13.662 2°55.96 14.8718 0.128051 0.710712 -3.020363
2011-03-17 07:18:38 51°13.662 2°55.96 14.8727 0.128051 0.710725 -3.020363
2011-03-17 07:18:43 51°13.662 2°55.96 14.8735 0.128051 0.710725 -3.020363
2011-03-17 07:18:48 51°13.662 2°55.96 14.8766 0.128051 0.710712 -3.020363
2011-03-17 07:18:54 51°13.662 2°55.96 14.8793 0.128051 0.710712 -3.020363
2011-03-17 07:18:58 51°13.662 2°55.96 14.8769 0.128051 0.710725 -3.020363
2011-03-17 07:19:03 51°13.662 2°55.959 14.8786 0.128051 0.710725 -3.020363
2011-03-17 07:19:08 51°13.663 2°55.959 14.8806 0.128051 0.710712 -3.020363
2011-03-17 07:19:14 51°13.663 2°55.959 14.8807 0.128051 0.710712 -3.020363
2011-03-17 07:19:18 51°13.663 2°55.959 14.8736 0.128051 0.710712 -3.020363
2011-03-17 07:19:23 51°13.663 2°55.959 14.8702 0.127948 0.710116 -3.020363
2011-03-17 07:19:28 51°13.663 2°55.959 14.8756 0.128154 0.711296 -3.020363
2011-03-17 07:19:34 51°13.662 2°55.959 14.8749 0.128154 0.711296 -3.020363
2011-03-17 07:19:38 51°13.662 2°55.959 14.8759 0.128051 0.7107 -3.020363
2011-03-17 07:19:43 51°13.662 2°55.959 14.8749 0.128051 0.7107 -3.020363
2011-03-17 07:19:48 51°13.662 2°55.959 14.8734 0.128154 0.711296 -3.020363
2011-03-17 07:19:54 51°13.662 2°55.959 14.874 0.128051 0.710712 -3.020363
2011-03-17 07:19:58 51°13.662 2°55.959 14.8746 0.128051 0.710712 -3.020363
2011-03-17 07:20:03 51°13.662 2°55.959 14.8746 0.128051 0.710712 -3.020363
2011-03-17 07:20:08 51°13.662 2°55.959 14.8742 0.127948 0.710116 -3.020363
2011-03-17 07:20:13 51°13.662 2°55.959 14.8736 0.127948 0.710116 -3.020363
2011-03-17 07:20:18 51°13.662 2°55.959 14.873 0.128154 0.711309 -3.020363
2011-03-17 07:20:23 51°13.662 2°55.959 14.8719 0.128051 0.7107 -3.020363
2011-03-17 07:20:28 51°13.662 2°55.959 14.8714 0.128154 0.711296 -3.020363
2011-03-17 07:20:33 51°13.662 2°55.959 14.8719 0.128051 0.7107 -3.020363
2011-03-17 07:20:38 51°13.662 2°55.959 14.8737 0.128051 0.710687 -3.020363
2011-03-17 07:20:43 51°13.662 2°55.959 14.8739 0.128051 0.710687 -3.020363
2011-03-17 07:20:48 51°13.662 2°55.959 14.8738 0.128051 0.7107 -3.020363
2011-03-17 07:20:53 51°13.662 2°55.959 14.8698 0.128051 0.7107 -3.020363
2011-03-17 07:20:58 51°13.662 2°55.959 14.8662 0.128051 0.7107 -3.020363
2011-03-17 07:21:04 51°13.662 2°55.959 14.8639 0.128154 0.711296 -3.020363
2011-03-17 07:21:08 51°13.662 2°55.959 14.8641 0.128051 0.7107 -3.020363
2011-03-17 07:21:14 51°13.662 2°55.959 14.8676 0.128051 0.7107 -3.020363
2011-03-17 07:21:18 51°13.662 2°55.959 14.8685 0.128051 0.7107 -3.020363
2011-03-17 07:21:23 51°13.662 2°55.959 14.8709 0.128051 0.7107 -3.020363
2011-03-17 07:21:28 51°13.662 2°55.959 14.8701 0.128051 0.7107 -3.020363
2011-03-17 07:21:33 51°13.662 2°55.959 14.8701 0.128051 0.7107 -3.020363
2011-03-17 07:21:38 51°13.662 2°55.959 14.8699 0.128051 0.7107 -3.020363
2011-03-17 07:21:43 51°13.662 2°55.959 14.8676 0.128051 0.7107 -3.020363
2011-03-17 07:21:48 51°13.662 2°55.959 14.8692 0.128051 0.7107 -3.020363
2011-03-17 07:21:54 51°13.662 2°55.959 14.8698 0.128051 0.7107 -3.020363
2011-03-17 07:21:58 51°13.662 2°55.959 14.8707 0.128051 0.7107 -3.020363
2011-03-17 07:22:03 51°13.662 2°55.959 14.8711 0.128051 0.7107 -3.020363
2011-03-17 07:22:07 51°13.662 2°55.959 14.8732 0.128154 0.711296 -3.020363
2011-03-17 07:22:13 51°13.662 2°55.959 14.8768 0.128154 0.711296 -3.020363
2011-03-17 07:22:18 51°13.662 2°55.959 14.8789 0.128051 0.7107 -3.020363
2011-03-17 07:22:22 51°13.662 2°55.959 14.8884 0.128051 0.7107 -3.020363
2011-03-17 07:22:27 51°13.662 2°55.959 14.8911 0.128051 0.7107 -3.020363
2011-03-17 07:22:33 51°13.662 2°55.959 14.8944 0.128154 0.711296 -3.020363
2011-03-17 07:22:38 51°13.662 2°55.959 14.8948 0.128051 0.7107 -3.020363
2011-03-17 07:22:43 51°13.662 2°55.959 14.8962 0.128051 0.7107 -3.020363
2011-03-17 07:22:48 51°13.662 2°55.959 14.895 0.128051 0.7107 -3.020363
2011-03-17 07:22:53 51°13.662 2°55.959 14.8947 0.128051 0.7107 -3.020363
2011-03-17 07:22:58 51°13.662 2°55.959 14.8947 0.128051 0.7107 -3.020363
2011-03-17 07:23:03 51°13.662 2°55.959 14.8949 0.128154 0.711296 -3.020363
2011-03-17 07:23:08 51°13.662 2°55.959 14.8953 0.128051 0.7107 -3.020363
2011-03-17 07:23:13 51°13.662 2°55.959 14.8955 0.128051 0.7107 -3.020363
2011-03-17 07:23:18 51°13.662 2°55.959 14.8967 0.128051 0.7107 -3.020363
2011-03-17 07:23:23 51°13.662 2°55.959 14.8957 0.128154 0.711296 -3.020363
2011-03-17 07:23:28 51°13.662 2°55.959 14.8959 0.128154 0.711309 -3.020363
2011-03-17 07:23:34 51°13.662 2°55.959 14.896 0.128051 0.710712 -3.020363
2011-03-17 07:23:38 51°13.662 2°55.959 14.8969 0.128154 0.711296 -3.020363
2011-03-17 07:23:43 51°13.662 2°55.959 14.8978 0.128154 0.711296 -3.020363
2011-03-17 07:23:48 51°13.662 2°55.959 14.8983 0.128051 0.7107 -3.020363
2011-03-17 07:23:54 51°13.662 2°55.959 14.8993 0.128051 0.7107 -3.020363
2011-03-17 07:23:58 51°13.662 2°55.96 14.8993 0.128051 0.7107 -3.020363
2011-03-17 07:24:03 51°13.662 2°55.96 14.8991 0.128051 0.710712 -3.020363
2011-03-17 07:24:08 51°13.662 2°55.96 14.8991 0.128051 0.7107 -3.020363
2011-03-17 07:24:14 51°13.662 2°55.96 14.8999 0.128051 0.7107 -3.020363
2011-03-17 07:24:18 51°13.662 2°55.96 14.9008 0.128051 0.7107 -3.020363
2011-03-17 07:24:23 51°13.662 2°55.96 14.9026 0.128051 0.710712 -3.020363
2011-03-17 07:24:28 51°13.662 2°55.96 14.9019 0.128051 0.710712 -3.020363
2011-03-17 07:24:34 51°13.662 2°55.96 14.9053 0.128051 0.7107 -3.020363
2011-03-17 07:24:38 51°13.662 2°55.96 14.9042 0.128154 0.711309 -3.020363
2011-03-17 07:24:43 51°13.662 2°55.96 14.9084 0.128154 0.711309 -3.020363
2011-03-17 07:24:48 51°13.662 2°55.96 14.9072 0.128051 0.7107 -3.020363
2011-03-17 07:24:53 51°13.662 2°55.96 14.9069 0.128051 0.7107 -3.020363
2011-03-17 07:24:58 51°13.662 2°55.96 14.9082 0.128154 0.711309 -3.020363
2011-03-17 07:25:04 51°13.662 2°55.959 14.9084 0.128051 0.710712 -3.020363
2011-03-17 07:25:08 51°13.662 2°55.959 14.9095 0.128154 0.711309 -3.020363
2011-03-17 07:25:14 51°13.662 2°55.959 14.9098 0.128154 0.711309 -3.020363
2011-03-17 07:25:18 51°13.663 2°55.959 14.9107 0.128051 0.710712 -3.020363
2011-03-17 07:25:23 51°13.663 2°55.959 14.912 0.128051 0.710712 -3.020363
2011-03-17 07:25:29 51°13.663 2°55.959 14.9134 0.128154 0.711309 -3.020363
2011-03-17 07:25:34 51°13.663 2°55.959 14.9133 0.128051 0.710712 -3.020363
2011-03-17 07:25:38 51°13.663 2°55.959 14.9126 0.128051 0.710712 -3.020363
2011-03-17 07:25:44 51°13.663 2°55.959 14.9101 0.128051 0.710712 -3.020363
2011-03-17 07:25:49 51°13.663 2°55.959 14.9082 0.128051 0.710712 -3.020363
2011-03-17 07:25:54 51°13.663 2°55.959 14.9083 0.128051 0.710712 -3.020363
2011-03-17 07:25:58 51°13.663 2°55.959 14.9088 0.128051 0.7107 -3.020363
2011-03-17 07:26:03 51°13.663 2°55.959 14.9107 0.128051 0.710712 -3.020363
2011-03-17 07:26:08 51°13.663 2°55.959 14.9134 0.127948 0.710116 -3.020363
2011-03-17 07:26:14 51°13.662 2°55.959 14.9146 0.127948 0.710116 -3.020363
2011-03-17 07:26:18 51°13.662 2°55.959 14.9146 0.128051 0.710712 -3.020363
2011-03-17 07:26:23 51°13.662 2°55.959 14.9142 0.128051 0.710712 -3.020363
2011-03-17 07:26:28 51°13.662 2°55.959 14.9143 0.128051 0.710712 -3.020363
2011-03-17 07:26:33 51°13.662 2°55.959 14.9141 0.128154 0.711309 -3.020363
2011-03-17 07:26:38 51°13.662 2°55.959 14.9147 0.128051 0.710712 -3.020363
2011-03-17 07:26:42 51°13.662 2°55.959 14.9169 0.128051 0.710712 -3.020363
2011-03-17 07:26:48 51°13.662 2°55.959 14.9188 0.128051 0.710712 -3.020363
2011-03-17 07:26:53 51°13.662 2°55.959 14.9192 0.128051 0.710712 -3.020363
2011-03-17 07:26:58 51°13.662 2°55.959 14.9185 0.128051 0.710712 -3.020363
2011-03-17 07:27:03 51°13.662 2°55.959 14.9199 0.128051 0.710712 -3.020363
2011-03-17 07:27:08 51°13.662 2°55.959 14.9185 0.128051 0.710712 -3.020363
2011-03-17 07:27:13 51°13.662 2°55.959 14.9203 0.128051 0.710712 -3.020363
2011-03-17 07:27:18 51°13.662 2°55.96 14.9224 0.128051 0.710712 -3.020363
2011-03-17 07:27:24 51°13.662 2°55.959 14.923 0.128154 0.711309 -3.020363
2011-03-17 07:27:28 51°13.662 2°55.96 14.9265 0.128051 0.710725 -3.020363
2011-03-17 07:27:33 51°13.662 2°55.96 14.9278 0.128051 0.710712 -3.020363
2011-03-17 07:27:38 51°13.662 2°55.96 14.9292 0.127948 0.710116 -3.020363
2011-03-17 07:27:44 51°13.662 2°55.96 14.9291 0.127948 0.710116 -3.020363
2011-03-17 07:27:49 51°13.662 2°55.96 14.9298 0.128051 0.710712 -3.020363
2011-03-17 07:27:54 51°13.662 2°55.96 14.9302 0.127948 0.710129 -3.020363
2011-03-17 07:27:58 51°13.662 2°55.96 14.9299 0.128051 0.710725 -3.020363
2011-03-17 07:28:03 51°13.662 2°55.96 14.9306 0.128051 0.710712 -3.020363
2011-03-17 07:28:08 51°13.663 2°55.96 14.931 0.128051 0.710712 -3.020363
2011-03-17 07:28:14 51°13.663 2°55.96 14.9294 0.128051 0.710712 -3.020363
2011-03-17 07:28:18 51°13.663 2°55.96 14.9305 0.128051 0.710712 -3.020363
2011-03-17 07:28:23 51°13.663 2°55.96 14.9313 0.127948 0.710116 -3.020363
2011-03-17 07:28:28 51°13.663 2°55.96 14.9329 0.128051 0.710712 -3.020363
2011-03-17 07:28:34 51°13.663 2°55.96 14.9339 0.127948 0.710116 -3.020363
2011-03-17 07:28:38 51°13.663 2°55.96 14.9354 0.128051 0.710712 -3.020363
2011-03-17 07:28:43 51°13.663 2°55.96 14.9368 0.128051 0.710712 -3.020363
2011-03-17 07:28:48 51°13.663 2°55.96 14.9378 0.128051 0.710712 -3.020363
2011-03-17 07:28:53 51°13.663 2°55.96 14.9381 0.128051 0.710712 -3.020363
2011-03-17 07:28:58 51°13.663 2°55.96 14.9386 0.128154 0.711309 -3.020363
2011-03-17 07:29:03 51°13.663 2°55.96 14.9384 0.128051 0.710712 -3.020363
2011-03-17 07:29:08 51°13.663 2°55.96 14.9383 0.128154 0.711309 -3.020363
2011-03-17 07:29:13 51°13.663 2°55.96 14.9379 0.128154 0.711309 -3.020363
2011-03-17 07:29:18 51°13.663 2°55.96 14.939 0.128051 0.710712 -3.020363
2011-03-17 07:29:23 51°13.663 2°55.96 14.939 0.128051 0.710712 -3.020363
2011-03-17 07:29:28 51°13.663 2°55.96 14.9415 0.128154 0.711309 -3.020363
2011-03-17 07:29:34 51°13.663 2°55.96 14.9436 0.128154 0.711309 -3.020363
2011-03-17 07:29:38 51°13.663 2°55.96 14.9447 0.128051 0.710712 -3.020363
2011-03-17 07:29:44 51°13.663 2°55.96 14.9455 0.128051 0.710712 -3.020363
2011-03-17 07:29:48 51°13.662 2°55.96 14.9471 0.128051 0.710712 -3.020363
2011-03-17 07:29:54 51°13.662 2°55.96 14.948 0.128051 0.710725 -3.020363
2011-03-17 07:29:58 51°13.662 2°55.96 14.9483 0.128051 0.710725 -3.020363
2011-03-17 07:30:03 51°13.662 2°55.96 14.9456 0.128051 0.710712 -3.020363
2011-03-17 07:30:08 51°13.662 2°55.96 14.9476 0.128051 0.710725 -3.020363
2011-03-17 07:30:14 51°13.662 2°55.96 14.9461 0.128051 0.710725 -3.020363
2011-03-17 07:30:18 51°13.662 2°55.96 14.9477 0.128051 0.710725 -3.020363
2011-03-17 07:30:23 51°13.662 2°55.96 14.9484 0.128051 0.710712 -3.020363
2011-03-17 07:30:29 51°13.662 2°55.96 14.9495 0.128051 0.710712 -3.020363
2011-03-17 07:30:34 51°13.662 2°55.96 14.9473 0.128154 0.711309 -3.020363
2011-03-17 07:30:38 51°13.662 2°55.96 14.9487 0.128051 0.710712 -3.020363
2011-03-17 07:30:43 51°13.662 2°55.96 14.9466 0.128051 0.710712 -3.020363
2011-03-17 07:30:49 51°13.662 2°55.96 14.9469 0.127948 0.710116 -3.020363
2011-03-17 07:30:54 51°13.662 2°55.96 14.9477 0.128051 0.710712 -3.020363
2011-03-17 07:30:58 51°13.662 2°55.96 14.9457 0.128051 0.710712 -3.020363
2011-03-17 07:31:03 51°13.662 2°55.96 14.9425 0.127948 0.710116 -3.020363
2011-03-17 07:31:08 51°13.662 2°55.96 14.933 0.128051 0.710712 -3.020363
2011-03-17 07:31:13 51°13.662 2°55.96 14.9343 0.128051 0.710712 -3.020363
2011-03-17 07:31:18 51°13.662 2°55.96 14.9378 0.127948 0.710116 -3.020363
2011-03-17 07:31:23 51°13.662 2°55.96 14.9417 0.128051 0.710712 -3.020363
2011-03-17 07:31:28 51°13.662 2°55.96 14.9441 0.128051 0.710712 -3.020363
2011-03-17 07:31:33 51°13.662 2°55.96 14.945 0.127948 0.710116 -3.020363
2011-03-17 07:31:38 51°13.662 2°55.96 14.9445 0.128051 0.710712 -3.020363
2011-03-17 07:31:44 51°13.662 2°55.96 14.9467 0.128051 0.710712 -3.020363
2011-03-17 07:31:48 51°13.662 2°55.96 14.947 0.127948 0.710129 -3.020363
2011-03-17 07:31:53 51°13.662 2°55.96 14.9475 0.128051 0.710712 -3.020363
2011-03-17 07:31:58 51°13.662 2°55.96 14.9465 0.128051 0.710712 -3.020363
2011-03-17 07:32:03 51°13.662 2°55.96 14.9478 0.128051 0.710712 -3.020363
2011-03-17 07:32:08 51°13.662 2°55.96 14.948 0.128051 0.710712 -3.020363
2011-03-17 07:32:14 51°13.662 2°55.96 14.948 0.128051 0.710712 -3.020363
2011-03-17 07:32:18 51°13.662 2°55.96 14.9483 0.128051 0.710712 -3.020363
2011-03-17 07:32:24 51°13.663 2°55.96 14.9492 0.128051 0.710712 -3.020363
2011-03-17 07:32:28 51°13.662 2°55.96 14.9489 0.127948 0.710116 -3.020363
2011-03-17 07:32:34 51°13.663 2°55.96 14.9504 0.127948 0.710116 -3.020363
2011-03-17 07:32:38 51°13.663 2°55.96 14.9504 0.127948 0.710116 -3.020363
2011-03-17 07:32:43 51°13.663 2°55.96 14.9518 0.127948 0.710116 -3.020363
2011-03-17 07:32:48 51°13.663 2°55.96 14.9519 0.128051 0.710712 -3.020363
2011-03-17 07:32:54 51°13.663 2°55.96 14.9529 0.128051 0.710712 -3.020363
2011-03-17 07:32:58 51°13.663 2°55.96 14.9545 0.128051 0.710712 -3.020363
2011-03-17 07:33:03 51°13.663 2°55.96 14.9556 0.127948 0.710116 -3.020363
2011-03-17 07:33:08 51°13.663 2°55.96 14.9571 0.128051 0.710712 -3.020363
2011-03-17 07:33:14 51°13.663 2°55.96 14.9582 0.128051 0.710712 -3.020363
2011-03-17 07:33:18 51°13.663 2°55.96 14.9598 0.127948 0.710129 -3.020363
2011-03-17 07:33:23 51°13.663 2°55.96 14.9592 0.128051 0.710725 -3.020363
2011-03-17 07:33:28 51°13.663 2°55.96 14.9604 0.128051 0.710712 -3.020363
2011-03-17 07:33:33 51°13.663 2°55.96 14.962 0.128051 0.710725 -3.020363
2011-03-17 07:33:38 51°13.663 2°55.96 14.9625 0.128051 0.710725 -3.020363
2011-03-17 07:33:43 51°13.663 2°55.96 14.965 0.128051 0.710725 -3.020363
2011-03-17 07:33:48 51°13.663 2°55.96 14.9654 0.128051 0.710712 -3.020363
2011-03-17 07:33:53 51°13.663 2°55.96 14.9664 0.128154 0.711309 -3.020363
2011-03-17 07:33:58 51°13.663 2°55.959 14.9679 0.128051 0.710725 -3.020363
2011-03-17 07:34:03 51°13.663 2°55.959 14.9679 0.128051 0.710725 -3.020363
2011-03-17 07:34:08 51°13.663 2°55.959 14.9692 0.128051 0.710725 -3.020363
2011-03-17 07:34:14 51°13.663 2°55.959 14.9721 0.128051 0.710725 -3.020363
2011-03-17 07:34:18 51°13.663 2°55.959 14.972 0.127948 0.710129 -3.020363
2011-03-17 07:34:24 51°13.663 2°55.959 14.9731 0.127948 0.710129 -3.020363
2011-03-17 07:34:28 51°13.663 2°55.959 14.9732 0.128051 0.710725 -3.020363
2011-03-17 07:34:34 51°13.663 2°55.959 14.9719 0.128051 0.710725 -3.020363
2011-03-17 07:34:38 51°13.663 2°55.959 14.9719 0.128051 0.710725 -3.020363
2011-03-17 07:34:43 51°13.663 2°55.959 14.9738 0.128051 0.710725 -3.020363
2011-03-17 07:34:48 51°13.663 2°55.959 14.9757 0.127948 0.710129 -3.020363
2011-03-17 07:34:54 51°13.663 2°55.959 14.9796 0.128051 0.710725 -3.020363
2011-03-17 07:34:58 51°13.663 2°55.96 14.9809 0.127948 0.710129 -3.020363
2011-03-17 07:35:03 51°13.663 2°55.96 14.9809 0.127948 0.710129 -3.020363
2011-03-17 07:35:08 51°13.663 2°55.96 14.9808 0.128051 0.710725 -3.020363
2011-03-17 07:35:14 51°13.663 2°55.96 14.9742 0.128051 0.710725 -3.020363
2011-03-17 07:35:18 51°13.663 2°55.96 14.9757 0.128051 0.710725 -3.020363
2011-03-17 07:35:23 51°13.663 2°55.961 14.973 0.128154 0.711321 -3.020363
2011-03-17 07:35:28 51°13.663 2°55.96 14.9739 0.127948 0.710129 -3.020363
2011-03-17 07:35:34 51°13.663 2°55.96 14.9761 0.128051 0.710725 -3.020363
2011-03-17 07:35:38 51°13.663 2°55.96 14.9771 0.128051 0.710725 -3.020363
2011-03-17 07:35:43 51°13.663 2°55.96 14.9772 0.128051 0.710725 -3.020363
2011-03-17 07:35:48 51°13.663 2°55.96 14.9782 0.128051 0.710738 -3.020363
2011-03-17 07:35:53 51°13.663 2°55.961 14.9778 0.127948 0.710142 -3.020363
2011-03-17 07:35:58 51°13.662 2°55.961 14.9794 0.128154 0.711321 -3.020363
2011-03-17 07:36:04 51°13.663 2°55.961 14.9792 0.127948 0.710129 -3.020363
2011-03-17 07:36:08 51°13.662 2°55.961 14.9809 0.127948 0.710129 -3.020363
2011-03-17 07:36:13 51°13.663 2°55.961 14.9751 0.127948 0.710129 -3.020363
2011-03-17 07:36:18 51°13.663 2°55.96 14.976 0.127948 0.710129 -3.020363
2011-03-17 07:36:24 51°13.663 2°55.96 14.9757 0.127948 0.710129 -3.020363
2011-03-17 07:36:28 51°13.663 2°55.961 14.9768 0.128051 0.710725 -3.020363
2011-03-17 07:36:33 51°13.663 2°55.961 14.9775 0.128051 0.710725 -3.020363
2011-03-17 07:36:38 51°13.663 2°55.961 14.9793 0.127948 0.710142 -3.020363
2011-03-17 07:36:43 51°13.663 2°55.961 14.9776 0.127948 0.710142 -3.020363
2011-03-17 07:36:48 51°13.662 2°55.961 14.9798 0.127948 0.710129 -3.020363
2011-03-17 07:36:54 51°13.663 2°55.961 14.9812 0.128051 0.710738 -3.020363
2011-03-17 07:36:58 51°13.663 2°55.961 14.9807 0.128051 0.710738 -3.020363
2011-03-17 07:37:03 51°13.663 2°55.961 14.9826 0.128051 0.710738 -3.020363
2011-03-17 07:37:08 51°13.663 2°55.961 14.9839 0.128051 0.710738 -3.020363
2011-03-17 07:37:13 51°13.663 2°55.96 14.9857 0.128051 0.710738 -3.020363
2011-03-17 07:37:18 51°13.663 2°55.96 14.9861 0.128051 0.710738 -3.020363
2011-03-17 07:37:23 51°13.663 2°55.96 14.9875 0.128051 0.710738 -3.020363
2011-03-17 07:37:28 51°13.663 2°55.96 14.9885 0.128051 0.710738 -3.020363
2011-03-17 07:37:34 51°13.663 2°55.96 14.9886 0.128051 0.710738 -3.020363
2011-03-17 07:37:38 51°13.663 2°55.96 14.9898 0.127948 0.710142 -3.020363
2011-03-17 07:37:43 51°13.662 2°55.96 14.989 0.127948 0.710142 -3.020363
2011-03-17 07:37:48 51°13.662 2°55.961 14.9892 0.128051 0.710738 -3.020363
2011-03-17 07:37:54 51°13.662 2°55.961 14.9886 0.127948 0.710142 -3.020363
2011-03-17 07:37:58 51°13.662 2°55.961 14.9902 0.128051 0.710738 -3.020363
2011-03-17 07:38:03 51°13.662 2°55.961 14.9904 0.128051 0.710738 -3.020363
2011-03-17 07:38:08 51°13.662 2°55.961 14.9894 0.127948 0.710142 -3.020363
2011-03-17 07:38:13 51°13.662 2°55.961 14.9894 0.127948 0.710142 -3.020363
2011-03-17 07:38:18 51°13.663 2°55.961 14.9895 0.128051 0.71075 -3.020363
2011-03-17 07:38:24 51°13.663 2°55.961 14.9895 0.128051 0.71075 -3.020363
2011-03-17 07:38:28 51°13.663 2°55.961 14.9898 0.128051 0.71075 -3.020363
2011-03-17 07:38:34 51°13.663 2°55.96 14.9892 0.127948 0.710154 -3.020363
2011-03-17 07:38:38 51°13.663 2°55.96 14.9899 0.127948 0.710154 -3.020363
2011-03-17 07:38:43 51°13.663 2°55.96 14.991 0.127948 0.710154 -3.020363
2011-03-17 07:38:48 51°13.663 2°55.961 14.991 0.127948 0.710154 -3.020363
2011-03-17 07:38:53 51°13.663 2°55.961 14.9914 0.127948 0.710154 -3.020363
2011-03-17 07:38:58 51°13.663 2°55.961 14.9934 0.128051 0.71075 -3.020363
2011-03-17 07:39:03 51°13.663 2°55.961 14.994 0.128051 0.71075 -3.020363
2011-03-17 07:39:08 51°13.663 2°55.961 14.995 0.127948 0.710154 -3.020363
2011-03-17 07:39:14 51°13.662 2°55.961 14.9959 0.127948 0.710154 -3.020363
2011-03-17 07:39:18 51°13.662 2°55.961 14.9959 0.127948 0.710154 -3.020363
2011-03-17 07:39:23 51°13.662 2°55.96 14.9962 0.128051 0.71075 -3.020363
2011-03-17 07:39:28 51°13.662 2°55.96 14.9967 0.128051 0.71075 -3.020363
2011-03-17 07:39:34 51°13.662 2°55.96 14.9976 0.127948 0.710154 -3.020363
2011-03-17 07:39:38 51°13.662 2°55.96 14.9979 0.128051 0.710763 -3.020363
2011-03-17 07:39:42 51°13.662 2°55.96 14.9989 0.128051 0.710763 -3.020363
2011-03-17 07:39:47 51°13.662 2°55.96 14.9993 0.127948 0.710154 -3.020363
2011-03-17 07:39:53 51°13.662 2°55.96 14.9999 0.128051 0.710763 -3.020363
2011-03-17 07:39:58 51°13.662 2°55.96 14.9999 0.127948 0.710167 -3.020363
2011-03-17 07:40:02 51°13.662 2°55.96 15.0001 0.128051 0.710763 -3.020363
2011-03-17 07:40:07 51°13.662 2°55.96 15.0009 0.128051 0.710763 -3.020363
2011-03-17 07:40:13 51°13.662 2°55.96 15.0021 0.128051 0.710763 -3.020363
2011-03-17 07:40:18 51°13.661 2°55.96 14.9939 0.128051 0.710763 -3.020363
2011-03-17 07:40:22 51°13.662 2°55.96 14.9701 0.128051 0.710763 -3.020363
2011-03-17 07:40:27 51°13.662 2°55.959 14.9418 0.128051 0.710763 -3.020363
2011-03-17 07:40:32 51°13.662 2°55.957 14.9327 0.128051 0.710763 -3.020363
2011-03-17 07:40:37 51°13.662 2°55.955 14.8685 0.127948 0.710179 -3.020363
2011-03-17 07:40:42 51°13.663 2°55.953 14.8979 0.127948 0.710179 -3.020363
2011-03-17 07:40:46 51°13.664 2°55.951 14.9601 0.128051 0.710776 -3.020363
2011-03-17 07:40:51 51°13.665 2°55.947 14.9396 0.128051 0.710763 -3.020363
2011-03-17 07:40:56 51°13.666 2°55.943 14.9612 0.128051 0.710776 -3.020363
2011-03-17 07:41:02 51°13.667 2°55.938 14.9982 0.128051 0.710763 -3.020363
2011-03-17 07:41:07 51°13.668 2°55.933 14.9585 0.128051 0.710763 -3.020363
2011-03-17 07:41:13 51°13.669 2°55.926 14.9755 0.128051 0.710763 -3.020363
2011-03-17 07:41:18 51°13.67 2°55.92 14.9836 0.128051 0.710763 -3.020363
2011-03-17 07:41:23 51°13.672 2°55.913 15.0173 0.128051 0.710763 -3.020363
2011-03-17 07:41:28 51°13.673 2°55.906 15.0092 0.127948 0.710167 -3.020363
2011-03-17 07:41:34 51°13.674 2°55.897 15.0048 0.127948 0.710179 -3.020363
2011-03-17 07:41:38 51°13.675 2°55.891 15.0037 0.127948 0.710167 -3.020363
2011-03-17 07:41:43 51°13.676 2°55.882 15.0052 0.127948 0.710167 -3.020363
2011-03-17 07:41:49 51°13.677 2°55.873 15.0151 0.128051 0.710763 -3.020363
2011-03-17 07:41:54 51°13.678 2°55.865 15.0256 0.127948 0.710167 -3.020363
2011-03-17 07:41:58 51°13.679 2°55.858 15.0266 0.127948 0.710167 -3.020363
2011-03-17 07:42:03 51°13.68 2°55.85 15.0228 0.128051 0.710763 -3.020363
2011-03-17 07:42:08 51°13.681 2°55.842 15.0165 0.127948 0.710179 -3.020363
2011-03-17 07:42:14 51°13.683 2°55.833 15.0157 0.127948 0.710179 -3.020363
2011-03-17 07:42:18 51°13.684 2°55.827 15.0165 0.128051 0.710763 -3.020363
2011-03-17 07:42:23 51°13.685 2°55.819 15.0172 0.128051 0.710776 -3.020363
2011-03-17 07:42:28 51°13.686 2°55.811 15.018 0.128051 0.710776 -3.020363
2011-03-17 07:42:33 51°13.688 2°55.804 15.0172 0.128051 0.710776 -3.020363
2011-03-17 07:42:38 51°13.689 2°55.796 15.0192 0.128051 0.710788 -3.020363
2011-03-17 07:42:43 51°13.691 2°55.789 15.0223 0.128051 0.710788 -3.020363
2011-03-17 07:42:48 51°13.692 2°55.782 15.031 0.128051 0.710788 -3.020363
2011-03-17 07:42:53 51°13.694 2°55.775 15.0281 0.127948 0.710192 -3.020363
2011-03-17 07:42:58 51°13.696 2°55.769 15.0262 0.128051 0.710801 -3.020363
2011-03-17 07:43:03 51°13.698 2°55.762 15.0268 0.128051 0.710801 -3.020363
2011-03-17 07:43:09 51°13.701 2°55.755 15.017 0.127948 0.710205 -3.020363
2011-03-17 07:43:13 51°13.703 2°55.75 15.0187 0.127948 0.710205 -3.020363
2011-03-17 07:43:18 51°13.705 2°55.744 15.0146 0.128051 0.710801 -3.020363
2011-03-17 07:43:24 51°13.709 2°55.736 15.0296 0.127948 0.710217 -3.020363
2011-03-17 07:43:28 51°13.711 2°55.732 15.0143 0.128051 0.710813 -3.020363
2011-03-17 07:43:34 51°13.715 2°55.725 15.0194 0.128051 0.710813 -3.020363
2011-03-17 07:43:38 51°13.718 2°55.72 15.0274 0.127948 0.710217 -3.020363
2011-03-17 07:43:43 51°13.722 2°55.714 15.0196 0.127948 0.710217 -3.020363
2011-03-17 07:43:48 51°13.726 2°55.708 15.0365 0.128051 0.710813 -3.020363
2011-03-17 07:43:54 51°13.731 2°55.701 15.04 0.127948 0.71023 -3.020363
2011-03-17 07:43:58 51°13.734 2°55.697 15.0336 0.128051 0.710813 -3.020363
2011-03-17 07:44:03 51°13.74 2°55.691 15.0313 0.128051 0.710813 -3.020363
2011-03-17 07:44:09 51°13.746 2°55.684 15.0364 0.128051 0.710813 -3.020363
2011-03-17 07:44:14 51°13.751 2°55.679 15.0406 0.128051 0.710813 -3.020363
2011-03-17 07:44:18 51°13.755 2°55.674 15.0318 0.127948 0.710217 -3.020363
2011-03-17 07:44:23 51°13.761 2°55.669 15.0209 0.128051 0.710813 -3.020363
2011-03-17 07:44:28 51°13.767 2°55.664 15.0211 0.128051 0.710813 -3.020363
2011-03-17 07:44:34 51°13.774 2°55.658 15.0271 0.127948 0.710217 -3.020363
2011-03-17 07:44:38 51°13.779 2°55.655 15.032 0.127948 0.71023 -3.020363
2011-03-17 07:44:43 51°13.785 2°55.65 15.0113 0.127948 0.71023 -3.020363
2011-03-17 07:44:48 51°13.791 2°55.646 15.0142 0.128051 0.710826 -3.020363
2011-03-17 07:44:53 51°13.798 2°55.642 15.0111 0.128051 0.710826 -3.020363
2011-03-17 07:44:58 51°13.805 2°55.638 15.0209 0.128051 0.710839 -3.020363
2011-03-17 07:45:04 51°13.813 2°55.634 15.0239 0.128051 0.710839 -3.020363
2011-03-17 07:45:08 51°13.819 2°55.631 15.0528 0.128051 0.710851 -3.020363
2011-03-17 07:45:13 51°13.826 2°55.628 15.0359 0.128051 0.710851 -3.020363
2011-03-17 07:45:18 51°13.833 2°55.626 15.0194 0.127948 0.710255 -3.020363
2011-03-17 07:45:23 51°13.841 2°55.623 15.0515 0.128051 0.710851 -3.020363
2011-03-17 07:45:28 51°13.848 2°55.621 15.0404 0.128051 0.710864 -3.020363
2011-03-17 07:45:33 51°13.854 2°55.62 15.032 0.127948 0.71028 -3.020363
2011-03-17 07:45:38 51°13.861 2°55.619 15.0079 0.128051 0.710877 -3.020363
2011-03-17 07:45:44 51°13.869 2°55.618 15.0229 0.128051 0.710877 -3.020363
2011-03-17 07:45:48 51°13.874 2°55.618 15.041 0.128051 0.710889 -3.020363
2011-03-17 07:45:54 51°13.882 2°55.619 15.032 0.127948 0.710293 -3.020363
2011-03-17 07:45:58 51°13.886 2°55.619 15.0162 0.127948 0.710293 -3.020363
2011-03-17 07:46:03 51°13.892 2°55.619 15.0224 0.127948 0.710306 -3.020363
2011-03-17 07:46:08 51°13.898 2°55.62 15.0196 0.128051 0.710902 -3.020363
2011-03-17 07:46:14 51°13.904 2°55.623 15.0045 0.128051 0.710902 -3.020363
2011-03-17 07:46:18 51°13.908 2°55.624 15.0091 0.128051 0.710915 -3.020363
2011-03-17 07:46:23 51°13.913 2°55.627 15.0332 0.128051 0.710915 -3.020363
2011-03-17 07:46:28 51°13.918 2°55.629 15.0194 0.127948 0.710331 -3.020363
2011-03-17 07:46:33 51°13.922 2°55.632 15.0199 0.127948 0.710331 -3.020363
2011-03-17 07:46:38 51°13.927 2°55.634 15.0285 0.127948 0.710344 -3.020363
2011-03-17 07:46:43 51°13.931 2°55.637 15.047 0.127948 0.710344 -3.020363
2011-03-17 07:46:48 51°13.934 2°55.64 15.0204 0.127948 0.710344 -3.020363
2011-03-17 07:46:53 51°13.938 2°55.643 15.0329 0.128051 0.71094 -3.020363
2011-03-17 07:46:58 51°13.941 2°55.645 15.0241 0.127948 0.710344 -3.020363
2011-03-17 07:47:02 51°13.944 2°55.647 14.9888 0.128051 0.710952 -3.020363
2011-03-17 07:47:07 51°13.947 2°55.649 14.9939 0.128051 0.71094 -3.020363
2011-03-17 07:47:12 51°13.949 2°55.651 15.0366 0.128051 0.71094 -3.020363
2011-03-17 07:47:17 51°13.95 2°55.651 15.0359 0.127948 0.710344 -3.020363
2011-03-17 07:47:22 51°13.951 2°55.651 15.0547 0.127948 0.710344 -3.020363
2011-03-17 07:47:26 51°13.952 2°55.651 15.0295 0.127948 0.710356 -3.020363
2011-03-17 07:47:31 51°13.952 2°55.65 15.0307 0.127948 0.710356 -3.020363
2011-03-17 07:47:36 51°13.952 2°55.649 15.0654 0.128051 0.710952 -3.020363
2011-03-17 07:47:41 51°13.952 2°55.646 14.9216 0.128051 0.710952 -3.020363
2011-03-17 07:47:46 51°13.951 2°55.642 14.7806 0.127948 0.710344 -3.020363
2011-03-17 07:47:50 51°13.951 2°55.638 14.6784 0.128051 0.710877 -3.020363
2011-03-17 07:47:55 51°13.95 2°55.631 14.7618 0.128051 0.710839 -3.020363
2011-03-17 07:48:00 51°13.951 2°55.624 14.73 0.128051 0.710864 -3.020363
2011-03-17 07:48:05 51°13.952 2°55.616 14.8176 0.127948 0.710331 -3.020363
2011-03-17 07:48:10 51°13.953 2°55.608 14.7689 0.127948 0.710331 -3.020363
2011-03-17 07:48:15 51°13.956 2°55.6 14.7383 0.128051 0.711003 -3.020363
2011-03-17 07:48:20 51°13.959 2°55.593 14.7889 0.128051 0.711054 -3.020363
2011-03-17 07:48:25 51°13.963 2°55.585 14.8979 0.127948 0.710457 -3.020363
2011-03-17 07:48:30 51°13.968 2°55.578 14.9266 0.128051 0.711041 -3.020363
2011-03-17 07:48:35 51°13.973 2°55.571 14.9277 0.128051 0.71099 -3.020363
2011-03-17 07:48:40 51°13.979 2°55.563 14.9446 0.128051 0.71099 -3.020363
2011-03-17 07:48:45 51°13.986 2°55.556 14.912 0.128051 0.710952 -3.020363
2011-03-17 07:48:50 51°13.993 2°55.548 14.9136 0.127948 0.710293 -3.020363
2011-03-17 07:48:55 51°14 2°55.54 14.9143 0.128051 0.710864 -3.020363
2011-03-17 07:49:00 51°14.008 2°55.531 14.9148 0.127948 0.710268 -3.020363
2011-03-17 07:49:05 51°14.016 2°55.523 14.8982 0.128051 0.710889 -3.020363
2011-03-17 07:49:10 51°14.024 2°55.514 14.8327 0.128051 0.710889 -3.020363
2011-03-17 07:49:15 51°14.032 2°55.505 14.8819 0.128051 0.710915 -3.020363
2011-03-17 07:49:20 51°14.041 2°55.496 14.8445 0.127948 0.710356 -3.020363
2011-03-17 07:49:25 51°14.05 2°55.487 14.9049 0.128051 0.71099 -3.020363
2011-03-17 07:49:30 51°14.059 2°55.478 14.789 0.127948 0.710419 -3.020363
2011-03-17 07:49:34 51°14.067 2°55.47 14.8228 0.128051 0.711003 -3.020363
2011-03-17 07:49:40 51°14.078 2°55.459 14.839 0.128051 0.711003 -3.020363
2011-03-17 07:49:45 51°14.088 2°55.45 14.8577 0.127948 0.710407 -3.020363
2011-03-17 07:49:50 51°14.098 2°55.44 14.818 0.127948 0.710394 -3.020363
2011-03-17 07:49:55 51°14.108 2°55.431 14.8587 0.128051 0.71099 -3.020363
2011-03-17 07:50:00 51°14.118 2°55.422 14.8216 0.128051 0.710978 -3.020363
2011-03-17 07:50:05 51°14.129 2°55.413 14.8832 0.128051 0.71099 -3.020363
2011-03-17 07:50:09 51°14.137 2°55.405 14.8205 0.128051 0.71099 -3.020363
2011-03-17 07:50:15 51°14.149 2°55.394 14.8472 0.127948 0.710407 -3.020363
2011-03-17 07:50:19 51°14.158 2°55.386 14.7753 0.127948 0.710419 -3.020363
2011-03-17 07:50:25 51°14.17 2°55.374 14.7713 0.128051 0.711016 -3.020363
2011-03-17 07:50:30 51°14.181 2°55.364 14.7956 0.128051 0.711028 -3.020363
2011-03-17 07:50:35 51°14.191 2°55.353 14.6736 0.128051 0.711028 -3.020363
2011-03-17 07:50:41 51°14.204 2°55.34 14.766 0.128051 0.711028 -3.020363
2011-03-17 07:50:46 51°14.215 2°55.329 14.7415 0.128051 0.711028 -3.020363
2011-03-17 07:50:52 51°14.228 2°55.315 14.6957 0.128051 0.711028 -3.020363
2011-03-17 07:50:57 51°14.24 2°55.304 14.6817 0.128051 0.711016 -3.020363
2011-03-17 07:51:03 51°14.254 2°55.29 14.731 0.127948 0.710432 -3.020363
2011-03-17 07:51:08 51°14.265 2°55.279 14.7188 0.128051 0.711028 -3.020363
2011-03-17 07:51:13 51°14.277 2°55.267 14.7677 0.128051 0.711028 -3.020363
2011-03-17 07:51:17 51°14.287 2°55.258 14.7323 0.128051 0.711028 -3.020363
2011-03-17 07:51:23 51°14.302 2°55.244 14.7159 0.127948 0.710445 -3.020363
2011-03-17 07:51:27 51°14.312 2°55.234 14.7741 0.128051 0.711041 -3.020363
2011-03-17 07:51:33 51°14.326 2°55.218 14.736 0.127948 0.710457 -3.020363
2011-03-17 07:51:37 51°14.337 2°55.208 14.6647 0.128051 0.711066 -3.020363
2011-03-17 07:51:42 51°14.349 2°55.195 14.7308 0.128051 0.711066 -3.020363
2011-03-17 07:51:47 51°14.362 2°55.181 14.6495 0.128051 0.711066 -3.020363
2011-03-17 07:51:51 51°14.373 2°55.171 14.7062 0.128051 0.711066 -3.020363
2011-03-17 07:51:57 51°14.389 2°55.154 14.6847 0.128051 0.711079 -3.020363
2011-03-17 07:52:02 51°14.402 2°55.14 14.6891 0.128051 0.711091 -3.020363
2011-03-17 07:52:06 51°14.413 2°55.129 14.7132 0.128051 0.711117 -3.020363
2011-03-17 07:52:11 51°14.426 2°55.114 14.5801 0.128051 0.711117 -3.020363
2011-03-17 07:52:16 51°14.439 2°55.1 14.5935 0.128051 0.711129 -3.020363
2011-03-17 07:52:21 51°14.452 2°55.085 14.6623 0.128051 0.711142 -3.020363
2011-03-17 07:52:26 51°14.465 2°55.069 14.5801 0.128051 0.711167 -3.020363
2011-03-17 07:52:31 51°14.478 2°55.053 14.5244 0.128051 0.711167 -3.020363
2011-03-17 07:52:37 51°14.494 2°55.035 14.5621 0.128154 0.711764 -3.020363
2011-03-17 07:52:42 51°14.507 2°55.02 14.5883 0.128154 0.711764 -3.020363
2011-03-17 07:52:46 51°14.518 2°55.008 14.5621 0.128051 0.711155 -3.020363
2011-03-17 07:52:51 51°14.531 2°54.993 14.6011 0.128051 0.711167 -3.020363
2011-03-17 07:52:56 51°14.545 2°54.978 14.4989 0.128051 0.711193 -3.020363
2011-03-17 07:53:01 51°14.558 2°54.963 14.6026 0.128051 0.711218 -3.020363
2011-03-17 07:53:06 51°14.571 2°54.948 14.489 0.128051 0.711243 -3.020363
2011-03-17 07:53:10 51°14.582 2°54.936 14.5539 0.128051 0.711243 -3.020363
2011-03-17 07:53:15 51°14.595 2°54.92 14.5557 0.128051 0.711269 -3.020363
2011-03-17 07:53:20 51°14.608 2°54.905 14.5147 0.128051 0.711294 -3.020363
2011-03-17 07:53:25 51°14.621 2°54.889 14.4859 0.128051 0.711294 -3.020363
2011-03-17 07:53:30 51°14.634 2°54.873 14.5401 0.128154 0.711903 -3.020363
2011-03-17 07:53:35 51°14.647 2°54.858 14.4256 0.128051 0.711294 -3.020363
2011-03-17 07:53:39 51°14.658 2°54.846 14.489 0.128051 0.711294 -3.020363
2011-03-17 07:53:45 51°14.674 2°54.827 14.4816 0.128051 0.711306 -3.020363
2011-03-17 07:53:50 51°14.687 2°54.812 14.5138 0.128051 0.711319 -3.020363
2011-03-17 07:53:55 51°14.7 2°54.796 14.4679 0.128051 0.711344 -3.020363
2011-03-17 07:54:00 51°14.713 2°54.781 14.5237 0.128154 0.711979 -3.020363
2011-03-17 07:54:05 51°14.726 2°54.766 14.511 0.128051 0.711395 -3.020363
2011-03-17 07:54:10 51°14.74 2°54.751 14.4473 0.128051 0.711395 -3.020363
2011-03-17 07:54:15 51°14.753 2°54.737 14.4674 0.128051 0.711433 -3.020363
2011-03-17 07:54:19 51°14.764 2°54.725 14.4812 0.128051 0.711446 -3.020363
2011-03-17 07:54:25 51°14.781 2°54.709 14.4485 0.128051 0.711458 -3.020363
2011-03-17 07:54:30 51°14.795 2°54.696 14.4849 0.128154 0.71208 -3.020363
2011-03-17 07:54:35 51°14.809 2°54.683 14.4978 0.128051 0.711509 -3.020363
2011-03-17 07:54:40 51°14.823 2°54.67 14.4398 0.128051 0.711509 -3.020363
2011-03-17 07:54:45 51°14.838 2°54.659 14.4975 0.128051 0.711534 -3.020363
2011-03-17 07:54:50 51°14.852 2°54.647 14.4747 0.128154 0.712144 -3.020363
2011-03-17 07:54:55 51°14.867 2°54.635 14.4823 0.127948 0.710975 -3.020363
2011-03-17 07:55:00 51°14.881 2°54.623 14.4822 0.128051 0.711598 -3.020363
2011-03-17 07:55:04 51°14.893 2°54.614 14.4848 0.128051 0.711623 -3.020363
2011-03-17 07:55:10 51°14.91 2°54.599 14.4432 0.128051 0.711623 -3.020363
2011-03-17 07:55:15 51°14.924 2°54.586 14.4447 0.128051 0.711623 -3.020363
2011-03-17 07:55:20 51°14.938 2°54.574 14.4637 0.128051 0.711636 -3.020363
2011-03-17 07:55:25 51°14.952 2°54.562 14.4616 0.128154 0.712245 -3.020363
2011-03-17 07:55:30 51°14.967 2°54.55 14.497 0.128051 0.711648 -3.020363
2011-03-17 07:55:34 51°14.978 2°54.54 14.492 0.128154 0.712245 -3.020363
2011-03-17 07:55:38 51°14.989 2°54.531 14.4747 0.128154 0.712245 -3.020363
2011-03-17 07:55:44 51°15.006 2°54.516 14.4325 0.128051 0.711686 -3.020363
2011-03-17 07:55:49 51°15.02 2°54.505 14.478 0.128051 0.711699 -3.020363
2011-03-17 07:55:54 51°15.035 2°54.492 14.4848 0.128051 0.711724 -3.020363
2011-03-17 07:55:58 51°15.046 2°54.483 14.4861 0.128051 0.71175 -3.020363
2011-03-17 07:56:04 51°15.063 2°54.468 14.4085 0.128051 0.711788 -3.020363
2011-03-17 07:56:10 51°15.079 2°54.452 14.4485 0.128051 0.711788 -3.020363
2011-03-17 07:56:14 51°15.091 2°54.443 14.4738 0.127948 0.711191 -3.020363
2011-03-17 07:56:18 51°15.102 2°54.437 14.4053 0.128051 0.7118 -3.020363
2011-03-17 07:56:24 51°15.12 2°54.427 14.451 0.128051 0.711813 -3.020363
2011-03-17 07:56:30 51°15.138 2°54.419 14.4768 0.128051 0.711826 -3.020363
2011-03-17 07:56:34 51°15.151 2°54.414 14.4417 0.128051 0.711851 -3.020363
2011-03-17 07:56:40 51°15.169 2°54.407 14.4442 0.128051 0.711851 -3.020363
2011-03-17 07:56:45 51°15.185 2°54.404 14.4236 0.128051 0.711851 -3.020363
2011-03-17 07:56:50 51°15.2 2°54.401 14.4442 0.128051 0.711851 -3.020363
2011-03-17 07:56:54 51°15.213 2°54.4 14.4595 0.127948 0.711279 -3.020363
2011-03-17 07:57:00 51°15.232 2°54.399 14.4691 0.128051 0.711889 -3.020363
2011-03-17 07:57:05 51°15.248 2°54.399 14.4584 0.127948 0.711305 -3.020363
2011-03-17 07:57:10 51°15.264 2°54.4 14.4631 0.127948 0.711305 -3.020363
2011-03-17 07:57:14 51°15.276 2°54.401 14.4397 0.127948 0.71133 -3.020363
2011-03-17 07:57:18 51°15.289 2°54.402 14.5061 0.128051 0.711927 -3.020363
2011-03-17 07:57:25 51°15.312 2°54.404 14.4787 0.128051 0.711952 -3.020363
2011-03-17 07:57:30 51°15.328 2°54.403 14.49 0.128051 0.711952 -3.020363
2011-03-17 07:57:34 51°15.34 2°54.402 14.506 0.127948 0.711381 -3.020363
2011-03-17 07:57:38 51°15.353 2°54.4 14.4898 0.127948 0.711381 -3.020363
2011-03-17 07:57:44 51°15.372 2°54.397 14.5015 0.127948 0.711406 -3.020363
2011-03-17 07:57:50 51°15.39 2°54.393 14.4474 0.128051 0.712003 -3.020363
2011-03-17 07:57:54 51°15.403 2°54.39 14.4956 0.127948 0.711419 -3.020363
2011-03-17 07:57:58 51°15.416 2°54.387 14.4715 0.127948 0.711419 -3.020363
2011-03-17 07:58:04 51°15.434 2°54.382 14.4824 0.127948 0.711431 -3.020363
2011-03-17 07:58:10 51°15.453 2°54.378 14.4645 0.127948 0.711431 -3.020363
2011-03-17 07:58:14 51°15.465 2°54.374 14.4811 0.127948 0.711431 -3.020363
2011-03-17 07:58:18 51°15.478 2°54.371 14.4737 0.127948 0.711444 -3.020363
2011-03-17 07:58:24 51°15.497 2°54.368 14.4787 0.127948 0.711444 -3.020363
2011-03-17 07:58:30 51°15.515 2°54.364 14.453 0.127845 0.710847 -3.020363
2011-03-17 07:58:34 51°15.528 2°54.362 14.4894 0.127948 0.711444 -3.020363
2011-03-17 07:58:40 51°15.547 2°54.358 14.4838 0.127948 0.711444 -3.020363
2011-03-17 07:58:45 51°15.562 2°54.356 14.4876 0.127948 0.711469 -3.020363
2011-03-17 07:58:50 51°15.578 2°54.353 14.486 0.127948 0.711469 -3.020363
2011-03-17 07:58:54 51°15.591 2°54.351 14.4705 0.127948 0.711469 -3.020363
2011-03-17 07:59:00 51°15.61 2°54.348 14.4467 0.127948 0.711482 -3.020363
2011-03-17 07:59:05 51°15.625 2°54.345 14.4832 0.127845 0.710897 -3.020363
2011-03-17 07:59:10 51°15.641 2°54.343 14.4752 0.127845 0.710897 -3.020363
2011-03-17 07:59:14 51°15.654 2°54.34 14.4954 0.127845 0.71091 -3.020363
2011-03-17 07:59:20 51°15.673 2°54.337 14.4641 0.127948 0.711507 -3.020363
2011-03-17 07:59:25 51°15.688 2°54.334 14.4503 0.127948 0.711495 -3.020363
2011-03-17 07:59:30 51°15.704 2°54.331 14.4884 0.127845 0.71091 -3.020363
2011-03-17 07:59:34 51°15.717 2°54.329 14.4725 0.127948 0.711495 -3.020363
2011-03-17 07:59:38 51°15.73 2°54.326 14.4472 0.127948 0.711495 -3.020363
2011-03-17 07:59:44 51°15.749 2°54.323 14.4681 0.127948 0.711507 -3.020363
2011-03-17 07:59:50 51°15.768 2°54.319 14.4336 0.127845 0.71091 -3.020363
2011-03-17 07:59:54 51°15.78 2°54.317 14.7683 0.127948 0.71152 -3.020363
2011-03-17 07:59:58 51°15.793 2°54.314 14.718 0.127948 0.711533 -3.020363
2011-03-17 08:00:04 51°15.812 2°54.31 14.6337 0.127948 0.71152 -3.020363
2011-03-17 08:00:10 51°15.831 2°54.306 14.6245 0.127948 0.71152 -3.020363
2011-03-17 08:00:14 51°15.843 2°54.303 14.6107 0.127948 0.711507 -3.020363
2011-03-17 08:00:18 51°15.856 2°54.3 14.6201 0.127845 0.71091 -3.020363
2011-03-17 08:00:24 51°15.875 2°54.296 14.6252 0.127948 0.711507 -3.020363
2011-03-17 08:00:30 51°15.894 2°54.293 14.6341 0.127948 0.711495 -3.020363
2011-03-17 08:00:34 51°15.906 2°54.29 14.6224 0.127948 0.711507 -3.020363
2011-03-17 08:00:38 51°15.919 2°54.288 14.656 0.127948 0.711507 -3.020363
2011-03-17 08:00:44 51°15.938 2°54.284 14.6454 0.127948 0.71152 -3.020363
2011-03-17 08:00:50 51°15.957 2°54.28 14.6433 0.128051 0.712092 -3.020363
2011-03-17 08:00:54 51°15.969 2°54.277 14.6424 0.127948 0.711495 -3.020363
2011-03-17 08:01:00 51°15.989 2°54.273 14.6371 0.127948 0.711469 -3.020363
2011-03-17 08:01:05 51°16.005 2°54.271 14.7012 0.127948 0.711482 -3.020363
2011-03-17 08:01:10 51°16.02 2°54.268 14.6864 0.127948 0.711482 -3.020363
2011-03-17 08:01:14 51°16.032 2°54.266 14.6633 0.127948 0.711495 -3.020363
2011-03-17 08:01:20 51°16.049 2°54.263 14.6511 0.127948 0.711482 -3.020363
2011-03-17 08:01:25 51°16.062 2°54.261 14.6561 0.128051 0.712079 -3.020363
2011-03-17 08:01:30 51°16.074 2°54.26 14.6558 0.127948 0.711482 -3.020363
2011-03-17 08:01:34 51°16.083 2°54.26 14.6605 0.127948 0.711469 -3.020363
2011-03-17 08:01:38 51°16.092 2°54.261 14.6554 0.127948 0.711469 -3.020363
2011-03-17 08:01:45 51°16.106 2°54.264 14.6554 0.128051 0.712067 -3.020363
2011-03-17 08:01:50 51°16.116 2°54.267 14.6685 0.127948 0.711469 -3.020363
2011-03-17 08:01:54 51°16.123 2°54.27 14.6585 0.127845 0.710885 -3.020363
2011-03-17 08:01:58 51°16.13 2°54.273 14.6538 0.127948 0.711495 -3.020363
2011-03-17 08:02:04 51°16.14 2°54.279 14.6561 0.127948 0.71152 -3.020363
2011-03-17 08:02:10 51°16.149 2°54.285 14.6541 0.127948 0.71152 -3.020363
2011-03-17 08:02:14 51°16.156 2°54.289 14.6522 0.127948 0.711533 -3.020363
2011-03-17 08:02:18 51°16.162 2°54.293 14.6602 0.127948 0.711545 -3.020363
2011-03-17 08:02:24 51°16.17 2°54.3 14.6598 0.127845 0.710948 -3.020363
2011-03-17 08:02:30 51°16.178 2°54.306 14.6584 0.127845 0.710948 -3.020363
2011-03-17 08:02:34 51°16.184 2°54.311 14.6562 0.127845 0.710961 -3.020363
2011-03-17 08:02:38 51°16.189 2°54.315 14.6663 0.127845 0.710961 -3.020363
2011-03-17 08:02:44 51°16.197 2°54.322 14.6693 0.127948 0.711558 -3.020363
2011-03-17 08:02:50 51°16.205 2°54.328 14.6598 0.127845 0.710961 -3.020363
2011-03-17 08:02:54 51°16.21 2°54.332 14.6674 0.127845 0.710973 -3.020363
2011-03-17 08:02:58 51°16.215 2°54.336 14.678 0.127845 0.710986 -3.020363
2011-03-17 08:03:04 51°16.223 2°54.343 14.6805 0.127948 0.711583 -3.020363
2011-03-17 08:03:10 51°16.23 2°54.349 14.6732 0.127948 0.711583 -3.020363
2011-03-17 08:03:14 51°16.234 2°54.353 14.6779 0.127845 0.711011 -3.020363
2011-03-17 08:03:20 51°16.24 2°54.359 14.6794 0.127948 0.711621 -3.020363
2011-03-17 08:03:25 51°16.245 2°54.363 14.6836 0.127845 0.711037 -3.020363
2011-03-17 08:03:30 51°16.25 2°54.367 14.6828 0.127845 0.711049 -3.020363
2011-03-17 08:03:34 51°16.253 2°54.37 14.6882 0.127845 0.711037 -3.020363
2011-03-17 08:03:40 51°16.258 2°54.375 14.7037 0.127845 0.711037 -3.020363
2011-03-17 08:03:45 51°16.261 2°54.379 14.7004 0.127845 0.711037 -3.020363
2011-03-17 08:03:50 51°16.264 2°54.383 14.6938 0.127845 0.711024 -3.020363
2011-03-17 08:03:54 51°16.266 2°54.387 14.6937 0.127948 0.711621 -3.020363
2011-03-17 08:03:58 51°16.267 2°54.39 14.7089 0.127845 0.711024 -3.020363
2011-03-17 08:04:05 51°16.269 2°54.394 14.6969 0.127845 0.711062 -3.020363
2011-03-17 08:04:10 51°16.271 2°54.398 14.6946 0.127845 0.711062 -3.020363
2011-03-17 08:04:14 51°16.271 2°54.4 14.6944 0.127742 0.710477 -3.020363
2011-03-17 08:04:18 51°16.272 2°54.402 14.693 0.127742 0.710503 -3.020363
2011-03-17 08:04:24 51°16.272 2°54.405 14.703 0.127845 0.711125 -3.020363
2011-03-17 08:04:30 51°16.273 2°54.408 14.7158 0.127845 0.711138 -3.020363
2011-03-17 08:04:34 51°16.273 2°54.41 14.7076 0.127845 0.711138 -3.020363
2011-03-17 08:04:38 51°16.273 2°54.412 14.7105 0.127845 0.711138 -3.020363
2011-03-17 08:04:44 51°16.273 2°54.416 14.7127 0.127742 0.710553 -3.020363
2011-03-17 08:04:50 51°16.273 2°54.418 14.7097 0.127845 0.711138 -3.020363
2011-03-17 08:04:54 51°16.273 2°54.42 14.7135 0.127845 0.711138 -3.020363
2011-03-17 08:04:58 51°16.273 2°54.422 14.7326 0.127742 0.710553 -3.020363
2011-03-17 08:05:04 51°16.272 2°54.425 14.73 0.127845 0.711163 -3.020363
2011-03-17 08:05:09 51°16.272 2°54.428 14.7256 0.127845 0.711163 -3.020363
2011-03-17 08:05:14 51°16.272 2°54.43 14.7231 0.127742 0.710591 -3.020363
2011-03-17 08:05:18 51°16.272 2°54.432 14.7335 0.127742 0.710629 -3.020363
2011-03-17 08:05:24 51°16.271 2°54.434 14.7331 0.127845 0.711265 -3.020363
2011-03-17 08:05:30 51°16.271 2°54.437 14.7472 0.127742 0.710705 -3.020363
2011-03-17 08:05:34 51°16.271 2°54.439 14.7525 0.127742 0.710731 -3.020363
2011-03-17 08:05:40 51°16.27 2°54.441 14.7374 0.127742 0.710731 -3.020363
2011-03-17 08:05:45 51°16.269 2°54.444 14.7355 0.127742 0.710769 -3.020363
2011-03-17 08:05:50 51°16.269 2°54.446 14.7379 0.127742 0.710794 -3.020363
2011-03-17 08:05:54 51°16.268 2°54.447 14.7389 0.12764 0.710209 -3.020363
2011-03-17 08:05:58 51°16.268 2°54.449 14.7482 0.12764 0.710234 -3.020363
2011-03-17 08:06:04 51°16.267 2°54.452 14.7398 0.127742 0.710857 -3.020363
2011-03-17 08:06:10 51°16.266 2°54.455 14.7421 0.127742 0.710857 -3.020363
2011-03-17 08:06:14 51°16.266 2°54.456 14.7474 0.12764 0.710272 -3.020363
2011-03-17 08:06:18 51°16.265 2°54.458 14.7508 0.12764 0.710298 -3.020363
2011-03-17 08:06:24 51°16.265 2°54.46 14.7467 0.12764 0.710336 -3.020363
2011-03-17 08:06:30 51°16.264 2°54.463 14.7469 0.127537 0.709776 -3.020363
2011-03-17 08:06:34 51°16.264 2°54.464 14.7502 0.12764 0.710399 -3.020363
2011-03-17 08:06:38 51°16.263 2°54.466 14.7598 0.12764 0.710399 -3.020363
2011-03-17 08:06:44 51°16.263 2°54.468 14.7516 0.127537 0.709827 -3.020363
2011-03-17 08:06:50 51°16.262 2°54.471 14.7548 0.127537 0.709839 -3.020363
2011-03-17 08:06:54 51°16.261 2°54.472 14.7648 0.12764 0.710462 -3.020363
2011-03-17 08:06:58 51°16.261 2°54.474 14.7557 0.127537 0.709877 -3.020363
2011-03-17 08:07:04 51°16.26 2°54.476 14.762 0.127537 0.709903 -3.020363
2011-03-17 08:07:09 51°16.259 2°54.478 14.7766 0.127537 0.709903 -3.020363
2011-03-17 08:07:14 51°16.259 2°54.479 14.7694 0.127537 0.709915 -3.020363
2011-03-17 08:07:18 51°16.259 2°54.481 14.7648 0.127537 0.709941 -3.020363
2011-03-17 08:07:24 51°16.258 2°54.483 14.7661 0.127537 0.709953 -3.020363
2011-03-17 08:07:29 51°16.257 2°54.485 14.7663 0.127537 0.709979 -3.020363
2011-03-17 08:07:34 51°16.257 2°54.486 14.7661 0.127537 0.710004 -3.020363
2011-03-17 08:07:38 51°16.256 2°54.488 14.7744 0.127537 0.710004 -3.020363
2011-03-17 08:07:44 51°16.256 2°54.489 14.7681 0.127537 0.710017 -3.020363
2011-03-17 08:07:50 51°16.255 2°54.491 14.7752 0.127537 0.710029 -3.020363
2011-03-17 08:07:54 51°16.254 2°54.493 14.7778 0.127434 0.709469 -3.020363
2011-03-17 08:08:00 51°16.254 2°54.494 14.7749 0.127434 0.709482 -3.020363
2011-03-17 08:08:04 51°16.254 2°54.496 14.7804 0.127537 0.710105 -3.020363
2011-03-17 08:08:10 51°16.253 2°54.497 14.7776 0.127537 0.710105 -3.020363
2011-03-17 08:08:14 51°16.253 2°54.498 14.777 0.127537 0.710118 -3.020363
2011-03-17 08:08:18 51°16.252 2°54.5 14.7867 0.127537 0.710143 -3.020363
2011-03-17 08:08:24 51°16.251 2°54.502 14.7896 0.127537 0.710156 -3.020363
2011-03-17 08:08:30 51°16.251 2°54.503 14.7847 0.127537 0.710169 -3.020363
2011-03-17 08:08:34 51°16.25 2°54.504 14.7845 0.127434 0.709596 -3.020363
2011-03-17 08:08:38 51°16.25 2°54.506 14.7881 0.127434 0.709596 -3.020363
2011-03-17 08:08:44 51°16.249 2°54.507 14.7984 0.127434 0.709609 -3.020363
2011-03-17 08:08:50 51°16.248 2°54.509 14.7896 0.127434 0.709621 -3.020363
2011-03-17 08:08:54 51°16.248 2°54.51 14.7917 0.127434 0.709647 -3.020363
2011-03-17 08:08:58 51°16.247 2°54.511 14.8019 0.127434 0.709659 -3.020363
2011-03-17 08:09:04 51°16.247 2°54.513 14.7975 0.127434 0.709685 -3.020363
2011-03-17 08:09:10 51°16.246 2°54.514 14.7975 0.127434 0.709685 -3.020363
2011-03-17 08:09:14 51°16.245 2°54.516 14.8041 0.127434 0.709697 -3.020363
2011-03-17 08:09:18 51°16.245 2°54.517 14.8048 0.127537 0.710308 -3.020363
2011-03-17 08:09:24 51°16.244 2°54.518 14.8017 0.127434 0.709735 -3.020363
2011-03-17 08:09:29 51°16.244 2°54.519 14.8201 0.127434 0.709735 -3.020363
2011-03-17 08:09:34 51°16.243 2°54.521 14.8127 0.127434 0.709748 -3.020363
2011-03-17 08:09:38 51°16.242 2°54.522 14.8159 0.127434 0.709748 -3.020363
2011-03-17 08:09:44 51°16.242 2°54.523 14.8116 0.127434 0.709761 -3.020363
2011-03-17 08:09:49 51°16.241 2°54.525 14.8242 0.127434 0.709786 -3.020363
2011-03-17 08:09:54 51°16.24 2°54.526 14.816 0.127434 0.709799 -3.020363
2011-03-17 08:09:58 51°16.24 2°54.527 14.8197 0.127434 0.709811 -3.020363
2011-03-17 08:10:04 51°16.239 2°54.528 14.8268 0.127434 0.709824 -3.020363
2011-03-17 08:10:10 51°16.238 2°54.53 14.8257 0.127434 0.709824 -3.020363
2011-03-17 08:10:14 51°16.238 2°54.531 14.8226 0.127434 0.709837 -3.020363
2011-03-17 08:10:20 51°16.237 2°54.532 14.8229 0.127331 0.709251 -3.020363
2011-03-17 08:10:24 51°16.236 2°54.533 14.8312 0.127434 0.709862 -3.020363
2011-03-17 08:10:30 51°16.236 2°54.534 14.831 0.127331 0.709264 -3.020363
2011-03-17 08:10:34 51°16.235 2°54.535 14.8291 0.127434 0.709875 -3.020363
2011-03-17 08:10:38 51°16.234 2°54.536 14.8283 0.127434 0.709875 -3.020363
2011-03-17 08:10:44 51°16.234 2°54.537 14.8318 0.127331 0.709289 -3.020363
2011-03-17 08:10:50 51°16.233 2°54.539 14.8306 0.127434 0.709887 -3.020363
2011-03-17 08:10:54 51°16.232 2°54.539 14.8358 0.127434 0.709913 -3.020363
2011-03-17 08:10:58 51°16.232 2°54.54 14.8344 0.127434 0.709913 -3.020363
2011-03-17 08:11:04 51°16.231 2°54.542 14.8377 0.127434 0.709925 -3.020363
2011-03-17 08:11:10 51°16.23 2°54.543 14.8463 0.127434 0.709925 -3.020363
2011-03-17 08:11:14 51°16.23 2°54.544 14.8423 0.127331 0.70934 -3.020363
2011-03-17 08:11:18 51°16.229 2°54.544 14.8417 0.127434 0.709951 -3.020363
2011-03-17 08:11:24 51°16.228 2°54.546 14.844 0.127434 0.709976 -3.020363
2011-03-17 08:11:29 51°16.228 2°54.547 14.8442 0.127331 0.709378 -3.020363
2011-03-17 08:11:34 51°16.227 2°54.548 14.8456 0.127434 0.709976 -3.020363
2011-03-17 08:11:38 51°16.226 2°54.548 14.8477 0.127434 0.709976 -3.020363
2011-03-17 08:11:44 51°16.225 2°54.549 14.8475 0.127434 0.710001 -3.020363
2011-03-17 08:11:49 51°16.225 2°54.551 14.8484 0.127331 0.709416 -3.020363
2011-03-17 08:11:54 51°16.224 2°54.551 14.8498 0.127331 0.709416 -3.020363
2011-03-17 08:11:58 51°16.224 2°54.552 14.8514 0.127331 0.709416 -3.020363
2011-03-17 08:12:04 51°16.223 2°54.553 14.8515 0.127434 0.710027 -3.020363
2011-03-17 08:12:10 51°16.222 2°54.555 14.8582 0.127434 0.710027 -3.020363
2011-03-17 08:12:14 51°16.221 2°54.555 14.8628 0.127434 0.710039 -3.020363
2011-03-17 08:12:20 51°16.221 2°54.556 14.8605 0.127228 0.708855 -3.020363
2011-03-17 08:12:24 51°16.22 2°54.557 14.8604 0.127331 0.709466 -3.020363
2011-03-17 08:12:30 51°16.219 2°54.558 14.8634 0.127331 0.709479 -3.020363
2011-03-17 08:12:34 51°16.218 2°54.559 14.8659 0.127331 0.709492 -3.020363
2011-03-17 08:12:38 51°16.218 2°54.56 14.8643 0.127331 0.709492 -3.020363
2011-03-17 08:12:44 51°16.218 2°54.561 14.8664 0.127331 0.709479 -3.020363
2011-03-17 08:12:50 51°16.217 2°54.562 14.8739 0.127331 0.709492 -3.020363
2011-03-17 08:12:54 51°16.216 2°54.563 14.8733 0.127331 0.709504 -3.020363
2011-03-17 08:12:58 51°16.216 2°54.564 14.8712 0.127434 0.710103 -3.020363
2011-03-17 08:13:04 51°16.215 2°54.565 14.8748 0.127331 0.709517 -3.020363
2011-03-17 08:13:10 51°16.214 2°54.566 14.8748 0.127331 0.709517 -3.020363
2011-03-17 08:13:14 51°16.214 2°54.567 14.8755 0.127331 0.70953 -3.020363
2011-03-17 08:13:18 51°16.214 2°54.567 14.8781 0.127331 0.70953 -3.020363
2011-03-17 08:13:24 51°16.213 2°54.569 14.8784 0.127331 0.709542 -3.020363
2011-03-17 08:13:30 51°16.212 2°54.57 14.8798 0.127331 0.709555 -3.020363
2011-03-17 08:13:34 51°16.211 2°54.571 14.8806 0.127331 0.709555 -3.020363
2011-03-17 08:13:38 51°16.211 2°54.571 14.8817 0.127331 0.709555 -3.020363
2011-03-17 08:13:44 51°16.21 2°54.572 14.883 0.127331 0.709568 -3.020363
2011-03-17 08:13:49 51°16.21 2°54.573 14.8878 0.127331 0.709581 -3.020363
2011-03-17 08:13:54 51°16.209 2°54.574 14.888 0.127331 0.709581 -3.020363
2011-03-17 08:13:58 51°16.209 2°54.575 14.8896 0.127331 0.709593 -3.020363
2011-03-17 08:14:04 51°16.208 2°54.576 14.8902 0.127331 0.709593 -3.020363
2011-03-17 08:14:09 51°16.207 2°54.577 14.8918 0.127331 0.709593 -3.020363
2011-03-17 08:14:14 51°16.207 2°54.578 14.8927 0.127331 0.709606 -3.020363
2011-03-17 08:14:18 51°16.206 2°54.579 14.8952 0.127228 0.70902 -3.020363
2011-03-17 08:14:24 51°16.206 2°54.58 14.8965 0.127228 0.709033 -3.020363
2011-03-17 08:14:30 51°16.205 2°54.581 14.8999 0.127228 0.709033 -3.020363
2011-03-17 08:14:34 51°16.204 2°54.582 14.9038 0.127331 0.709644 -3.020363
2011-03-17 08:14:40 51°16.203 2°54.583 14.9045 0.127331 0.709644 -3.020363
2011-03-17 08:14:45 51°16.202 2°54.584 14.905 0.127331 0.709657 -3.020363
2011-03-17 08:14:50 51°16.202 2°54.585 14.905 0.127331 0.709657 -3.020363
2011-03-17 08:14:54 51°16.201 2°54.585 14.9089 0.127331 0.709657 -3.020363
2011-03-17 08:14:58 51°16.201 2°54.587 14.9087 0.127331 0.709669 -3.020363
2011-03-17 08:15:04 51°16.2 2°54.588 14.9105 0.127331 0.709682 -3.020363
2011-03-17 08:15:10 51°16.199 2°54.589 14.9128 0.127331 0.709682 -3.020363
2011-03-17 08:15:14 51°16.198 2°54.59 14.9157 0.127331 0.709682 -3.020363
2011-03-17 08:15:18 51°16.198 2°54.591 14.9148 0.127331 0.709695 -3.020363
2011-03-17 08:15:24 51°16.197 2°54.591 14.9166 0.127331 0.709695 -3.020363
2011-03-17 08:15:30 51°16.196 2°54.593 14.9173 0.127331 0.709707 -3.020363
2011-03-17 08:15:34 51°16.196 2°54.594 14.9187 0.127331 0.70972 -3.020363
2011-03-17 08:15:38 51°16.195 2°54.594 14.92 0.127331 0.70972 -3.020363
2011-03-17 08:15:44 51°16.194 2°54.597 14.9208 0.127331 0.70972 -3.020363
2011-03-17 08:15:50 51°16.193 2°54.6 14.9226 0.127331 0.709733 -3.020363
2011-03-17 08:15:54 51°16.192 2°54.604 14.9241 0.127331 0.70972 -3.020363
2011-03-17 08:15:58 51°16.191 2°54.607 14.9262 0.127331 0.70972 -3.020363
2011-03-17 08:16:04 51°16.188 2°54.612 14.9291 0.127331 0.709733 -3.020363
2011-03-17 08:16:09 51°16.186 2°54.617 14.9337 0.127331 0.709733 -3.020363
2011-03-17 08:16:14 51°16.184 2°54.622 14.9419 0.127434 0.710331 -3.020363
2011-03-17 08:16:18 51°16.181 2°54.626 14.9364 0.127331 0.709758 -3.020363
2011-03-17 08:16:24 51°16.177 2°54.632 14.9387 0.127331 0.709771 -3.020363
2011-03-17 08:16:29 51°16.173 2°54.636 14.9428 0.127228 0.709172 -3.020363
2011-03-17 08:16:34 51°16.169 2°54.64 14.941 0.127331 0.709771 -3.020363
2011-03-17 08:16:38 51°16.166 2°54.643 14.9539 0.127331 0.709771 -3.020363
2011-03-17 08:16:44 51°16.16 2°54.646 14.9516 0.127228 0.709197 -3.020363
2011-03-17 08:16:50 51°16.154 2°54.648 14.9546 0.127331 0.709796 -3.020363
2011-03-17 08:16:54 51°16.15 2°54.649 14.9527 0.127228 0.709197 -3.020363
2011-03-17 08:17:00 51°16.144 2°54.648 14.9589 0.127331 0.709796 -3.020363
2011-03-17 08:17:04 51°16.14 2°54.648 14.968 0.127228 0.70921 -3.020363
2011-03-17 08:17:10 51°16.134 2°54.646 14.9599 0.127228 0.70921 -3.020363
2011-03-17 08:17:14 51°16.131 2°54.643 14.9619 0.127228 0.70921 -3.020363
2011-03-17 08:17:18 51°16.127 2°54.641 14.9706 0.127228 0.70921 -3.020363
2011-03-17 08:17:24 51°16.121 2°54.635 14.9721 0.127228 0.70921 -3.020363
2011-03-17 08:17:30 51°16.114 2°54.628 14.9694 0.127331 0.709796 -3.020363
2011-03-17 08:17:34 51°16.11 2°54.622 14.9776 0.127331 0.709796 -3.020363
2011-03-17 08:17:38 51°16.106 2°54.615 14.9766 0.127331 0.709796 -3.020363
2011-03-17 08:17:44 51°16.101 2°54.603 14.9803 0.127228 0.709185 -3.020363
2011-03-17 08:17:50 51°16.096 2°54.59 14.9749 0.127331 0.709796 -3.020363
2011-03-17 08:17:54 51°16.093 2°54.58 14.9785 0.127331 0.709809 -3.020363
2011-03-17 08:17:58 51°16.091 2°54.57 7.0475 0.127023 0.71182 -3.020363
2011-03-17 08:18:04 51°16.087 2°54.554 6.7493 0.276145 1.605752 -3.020363
2011-03-17 08:18:10 51°16.085 2°54.536 6.6808 0.276145 1.605752 -3.020363
2011-03-17 08:18:14 51°16.083 2°54.524 6.6062 0.272031 1.58026 -3.020363
2011-03-17 08:18:18 51°16.082 2°54.512 6.5577 0.245803 1.428887 -3.020363
2011-03-17 08:18:24 51°16.081 2°54.493 6.5154 1.079481 7.317501 -3.020363
2011-03-17 08:18:29 51°16.08 2°54.477 6.484 2.433907 19.464988 -3.020363
2011-03-17 08:18:34 51°16.08 2°54.461 6.467 2.574639 21.557724 -3.020363
2011-03-17 08:18:38 51°16.08 2°54.447 6.4551 2.574639 21.557724 -3.020363
2011-03-17 08:18:44 51°16.079 2°54.428 6.4478 3.093041 27.444727 -3.020363
2011-03-17 08:18:50 51°16.079 2°54.407 6.4393 3.272667 30.41116 -3.020363
2011-03-17 08:18:54 51°16.078 2°54.394 6.4391 3.271329 30.951184 -3.020363
2011-03-17 08:19:00 51°16.077 2°54.373 6.4376 3.221871 30.793019 -3.020363
2011-03-17 08:19:04 51°16.077 2°54.359 6.4393 3.183695 30.640169 -3.020363
2011-03-17 08:19:10 51°16.078 2°54.339 6.4405 3.183695 30.640169 -3.020363
2011-03-17 08:19:14 51°16.08 2°54.326 6.4384 3.170764 30.692175 -3.020363
2011-03-17 08:19:20 51°16.084 2°54.307 6.4385 3.150074 30.584662 -3.020363
2011-03-17 08:19:24 51°16.087 2°54.295 6.4389 3.133626 30.509093 -3.020363
2011-03-17 08:19:30 51°16.094 2°54.279 6.4377 3.125868 30.488173 -3.020363
2011-03-17 08:19:34 51°16.099 2°54.269 6.4361 3.120489 30.474722 -3.020363
2011-03-17 08:19:38 51°16.105 2°54.261 6.4361 3.120489 30.474722 -3.020363
2011-03-17 08:19:45 51°16.115 2°54.245 6.4345 3.116351 30.461435 -3.020363
2011-03-17 08:19:50 51°16.123 2°54.234 6.4333 3.113351 30.455476 -3.020363
2011-03-17 08:19:54 51°16.129 2°54.226 6.4307 3.111386 30.457398 -3.020363
2011-03-17 08:19:58 51°16.136 2°54.219 6.4304 3.090594 30.24805 -3.020363
2011-03-17 08:20:04 51°16.146 2°54.207 6.4295 3.111593 30.493656 -3.020363
2011-03-17 08:20:10 51°16.157 2°54.195 6.4281 3.111593 30.493656 -3.020363
2011-03-17 08:20:14 51°16.163 2°54.188 6.4261 3.110869 30.494116 -3.020363
2011-03-17 08:20:18 51°16.171 2°54.18 6.4078 3.109111 30.490839 -3.020363
2011-03-17 08:20:24 51°16.182 2°54.171 6.397 3.109318 30.512217 -3.020363
2011-03-17 08:20:29 51°16.191 2°54.164 6.391 3.108801 30.505772 -3.020363
2011-03-17 08:20:34 51°16.201 2°54.159 6.3875 3.108387 30.516268 -3.020363
2011-03-17 08:20:38 51°16.209 2°54.156 6.3772 3.108387 30.516268 -3.020363
2011-03-17 08:20:44 51°16.22 2°54.156 6.376 3.108698 30.523804 -3.020363
2011-03-17 08:20:49 51°16.229 2°54.157 6.3742 3.108594 30.534352 -3.020363
2011-03-17 08:20:54 51°16.236 2°54.16 6.3724 3.108698 30.542984 -3.020363
2011-03-17 08:20:58 51°16.242 2°54.163 6.3741 3.108388 30.547123 -3.020363
2011-03-17 08:21:04 51°16.25 2°54.17 6.3741 3.107871 30.554027 -3.020363
2011-03-17 08:21:10 51°16.255 2°54.176 6.3741 3.107871 30.554027 -3.020363
2011-03-17 08:21:14 51°16.259 2°54.18 6.3723 3.107353 30.561773 -3.020363
2011-03-17 08:21:20 51°16.263 2°54.187 6.3725 3.105802 30.557434 -3.020363
2011-03-17 08:21:24 51°16.265 2°54.191 6.3712 3.105181 30.564901 -3.020363
2011-03-17 08:21:30 51°16.268 2°54.196 6.3709 3.104664 30.565129 -3.020363
2011-03-17 08:21:34 51°16.269 2°54.2 6.3711 3.105699 30.579741 -3.020363
2011-03-17 08:21:40 51°16.271 2°54.205 6.3711 3.105699 30.579741 -3.020363
2011-03-17 08:21:45 51°16.271 2°54.209 6.3701 3.105595 30.584479 -3.020363
2011-03-17 08:21:50 51°16.272 2°54.211 6.3696 3.105492 30.587542 -3.020363
2011-03-17 08:21:54 51°16.272 2°54.213 6.3725 3.105078 30.586387 -3.020363
2011-03-17 08:21:58 51°16.272 2°54.214 6.3737 3.104871 30.58581 -3.020363
2011-03-17 08:22:04 51°16.271 2°54.215 6.381 3.104664 30.590262 -3.020363
2011-03-17 08:22:10 51°16.27 2°54.217 6.3766 3.104664 30.590262 -3.020363
2011-03-17 08:22:14 51°16.27 2°54.218 6.3754 3.104354 30.587719 -3.020363
2011-03-17 08:22:18 51°16.27 2°54.22 6.3773 3.104251 30.590785 -3.020363
2011-03-17 08:22:24 51°16.269 2°54.222 6.3777 3.104147 30.593012 -3.020363
2011-03-17 08:22:30 51°16.268 2°54.224 6.3806 3.104561 30.597522 -3.020363
2011-03-17 08:22:34 51°16.268 2°54.225 6.3802 3.104561 30.600039 -3.020363
2011-03-17 08:22:38 51°16.267 2°54.226 6.381 3.104561 30.600039 -3.020363
2011-03-17 08:22:44 51°16.266 2°54.228 6.3816 3.104768 30.602294 -3.020363
2011-03-17 08:22:49 51°16.266 2°54.229 6.3845 3.105078 30.609034 -3.020363
2011-03-17 08:22:54 51°16.265 2°54.231 6.3822 3.105389 30.614097 -3.020363
2011-03-17 08:22:58 51°16.265 2°54.232 6.3829 3.105699 30.61916 -3.020363
2011-03-17 08:23:04 51°16.264 2°54.234 6.3839 3.10632 30.623407 -3.020363
2011-03-17 08:23:10 51°16.263 2°54.236 6.38 3.10632 30.623407 -3.020363
2011-03-17 08:23:14 51°16.263 2°54.237 6.3814 3.106527 30.628183 -3.020363
2011-03-17 08:23:19 51°16.262 2°54.239 6.3814 3.106734 30.632119 -3.020363
2011-03-17 08:23:25 51°16.261 2°54.24 6.3784 3.107044 30.634663 -3.020363
2011-03-17 08:23:30 51°16.26 2°54.242 6.377 3.107251 30.637759 -3.020363
2011-03-17 08:23:34 51°16.26 2°54.243 6.3779 3.107458 30.640015 -3.020363
2011-03-17 08:23:39 51°16.259 2°54.245 6.3772 3.107458 30.640015 -3.020363
2011-03-17 08:23:45 51°16.258 2°54.246 6.3753 3.107251 30.641121 -3.020363
2011-03-17 08:23:49 51°16.257 2°54.248 6.3731 3.107044 30.639705 -3.020363
2011-03-17 08:23:54 51°16.256 2°54.25 6.3746 3.106734 30.638843 -3.020363
2011-03-17 08:23:59 51°16.256 2°54.251 6.3723 3.106216 30.634042 -3.020363
2011-03-17 08:24:05 51°16.255 2°54.253 6.3737 3.105699 30.630922 -3.020363
2011-03-17 08:24:10 51°16.254 2°54.255 6.3734 3.105699 30.630922 -3.020363
2011-03-17 08:24:14 51°16.253 2°54.256 6.3732 3.105699 30.631763 -3.020363
2011-03-17 08:24:19 51°16.252 2°54.258 6.3724 3.105389 30.629218 -3.020363
2011-03-17 08:24:25 51°16.251 2°54.26 6.3701 3.104872 30.625257 -3.020363
2011-03-17 08:24:30 51°16.25 2°54.261 6.3688 3.104355 30.622977 -3.020363
2011-03-17 08:24:34 51°16.25 2°54.263 6.3675 3.103837 30.619855 -3.020363
2011-03-17 08:24:39 51°16.249 2°54.265 6.3678 3.103837 30.619855 -3.020363
2011-03-17 08:24:44 51°16.248 2°54.266 6.3683 3.10332 30.615053 -3.020363
2011-03-17 08:24:50 51°16.247 2°54.269 6.3668 3.10301 30.613348 -3.020363
2011-03-17 08:24:54 51°16.246 2°54.27 6.3676 3.102699 30.609962 -3.020363
2011-03-17 08:24:58 51°16.246 2°54.271 6.3689 3.102286 30.606288 -3.020363
2011-03-17 08:25:04 51°16.245 2°54.273 6.3723 3.102079 30.607392 -3.020363
2011-03-17 08:25:10 51°16.244 2°54.276 6.3726 3.102079 30.607392 -3.020363
2011-03-17 08:25:14 51°16.243 2°54.277 6.3685 3.101562 30.601748 -3.020363
2011-03-17 08:25:20 51°16.242 2°54.279 6.3658 3.101355 30.601171 -3.020363
2011-03-17 08:25:25 51°16.241 2°54.281 6.3664 3.101044 30.599465 -3.020363
2011-03-17 08:25:30 51°16.241 2°54.283 6.3664 3.100734 30.5986 -3.020363
2011-03-17 08:25:34 51°16.24 2°54.284 6.3633 3.100424 30.594373 -3.020363
2011-03-17 08:25:40 51°16.239 2°54.287 6.3658 3.100424 30.594373 -3.020363
2011-03-17 08:25:45 51°16.239 2°54.289 6.3614 3.10032 30.592404 -3.020363
2011-03-17 08:25:50 51°16.238 2°54.29 6.3599 3.100217 30.592115 -3.020363
2011-03-17 08:25:54 51°16.237 2°54.292 6.3617 3.099907 30.589569 -3.020363
2011-03-17 08:26:00 51°16.236 2°54.294 6.3582 3.099596 30.588703 -3.020363
2011-03-17 08:26:05 51°16.236 2°54.296 6.3591 3.099389 30.589805 -3.020363
2011-03-17 08:26:10 51°16.235 2°54.298 6.3607 3.099389 30.589805 -3.020363
2011-03-17 08:26:14 51°16.234 2°54.299 6.3589 3.099182 30.589228 -3.020363
2011-03-17 08:26:18 51°16.234 2°54.301 6.3611 3.098872 30.586681 -3.020363
2011-03-17 08:26:25 51°16.233 2°54.303 6.3638 3.098665 30.586943 -3.020363
2011-03-17 08:26:30 51°16.232 2°54.305 6.3599 3.098458 30.587206 -3.020363
2011-03-17 08:26:34 51°16.232 2°54.307 6.3624 3.098355 30.585236 -3.020363
2011-03-17 08:26:38 51°16.231 2°54.308 6.3621 3.098355 30.585236 -3.020363
2011-03-17 08:26:44 51°16.23 2°54.31 6.3663 3.098252 30.585787 -3.020363
2011-03-17 08:26:50 51°16.23 2°54.312 6.3709 3.098148 30.586339 -3.020363
2011-03-17 08:26:54 51°16.229 2°54.314 6.3698 3.098045 30.58521 -3.020363
2011-03-17 08:26:58 51°16.228 2°54.315 6.3691 3.098045 30.584369 -3.020363
2011-03-17 08:27:04 51°16.228 2°54.317 6.3661 3.098045 30.58605 -3.020363
2011-03-17 08:27:10 51°16.227 2°54.319 6.3686 3.098045 30.58605 -3.020363
2011-03-17 08:27:14 51°16.227 2°54.321 6.3675 3.097838 30.584632 -3.020363
2011-03-17 08:27:18 51°16.226 2°54.322 6.368 3.097838 30.583791 -3.020363
2011-03-17 08:27:24 51°16.226 2°54.324 6.3716 3.097941 30.5824 -3.020363
2011-03-17 08:27:30 51°16.225 2°54.327 6.3779 3.098045 30.581008 -3.020363
2011-03-17 08:27:34 51°16.225 2°54.328 6.3897 3.098148 30.582978 -3.020363
2011-03-17 08:27:40 51°16.224 2°54.33 6.4029 3.098148 30.582978 -3.020363
2011-03-17 08:27:45 51°16.224 2°54.332 6.4128 3.097838 30.581271 -3.020363
2011-03-17 08:27:50 51°16.223 2°54.333 6.418 3.097941 30.58156 -3.020363
2011-03-17 08:27:54 51°16.223 2°54.335 6.417 3.097734 30.580981 -3.020363
2011-03-17 08:28:00 51°16.222 2°54.337 6.4159 3.097734 30.580981 -3.020363
2011-03-17 08:28:05 51°16.222 2°54.339 6.4156 3.097941 30.579039 -3.020363
2011-03-17 08:28:10 51°16.221 2°54.34 6.4216 3.097941 30.579039 -3.020363
2011-03-17 08:28:14 51°16.221 2°54.342 6.4176 3.098045 30.575129 -3.020363
2011-03-17 08:28:20 51°16.22 2°54.344 6.4155 3.098665 30.573505 -3.020363
2011-03-17 08:28:25 51°16.219 2°54.345 6.4209 3.099079 30.570465 -3.020363
2011-03-17 08:28:30 51°16.219 2°54.347 6.4203 3.099699 30.571361 -3.020363
2011-03-17 08:28:34 51°16.218 2°54.349 6.4131 3.099906 30.5711 -3.020363
2011-03-17 08:28:38 51°16.218 2°54.35 6.4119 3.099906 30.5711 -3.020363
2011-03-17 08:28:45 51°16.217 2°54.353 6.4149 3.100217 30.571968 -3.020363
2011-03-17 08:28:50 51°16.216 2°54.354 6.4182 3.10032 30.572257 -3.020363
2011-03-17 08:28:54 51°16.216 2°54.356 6.4225 3.10032 30.571418 -3.020363
2011-03-17 08:28:58 51°16.215 2°54.357 6.4197 3.10063 30.575641 -3.020363
2011-03-17 08:29:04 51°16.215 2°54.359 6.4281 3.100423 30.572546 -3.020363